GEFSGL_prec_meanprecacc_186.txt.gz
Total_Precipitation_Accumulation
1.05 1.07 1.16 1.30 1.35 1.36 1.47 1.44 1.32 1.24 1.21 1.16 1.12 1.14 1.13 1.10 1.20 1.37 1.51 1.70 1.83 1.88 1.85 1.87 1.86 1.94 1.97 1.86 1.91 1.96 2.10 2.26 2.02 1.63 1.68 1.83 1.77 1.58 1.44 1.33 1.22 1.20 1.14
1.02 1.10 1.16 1.25 1.27 1.22 1.26 1.34 1.38 1.28 1.20 1.20 1.23 1.19 1.08 1.07 1.17 1.31 1.48 1.66 1.82 1.92 1.99 2.03 1.87 1.93 2.03 1.99 1.97 1.97 2.04 2.27 2.22 2.09 2.03 2.09 2.04 1.81 1.59 1.37 1.10 0.98 1.02
1.13 1.13 1.09 1.12 1.06 1.05 1.10 1.16 1.24 1.28 1.28 1.28 1.30 1.27 1.25 1.31 1.42 1.48 1.54 1.67 1.82 1.91 1.98 1.95 1.93 2.03 1.96 1.98 2.02 2.00 1.99 1.99 2.08 2.07 1.99 2.09 2.04 1.80 1.59 1.37 1.16 1.14 1.03
0.98 0.99 1.00 0.99 0.99 1.05 1.10 1.12 1.14 1.15 1.23 1.27 1.27 1.35 1.41 1.48 1.51 1.52 1.51 1.55 1.65 1.74 1.74 1.65 1.60 1.66 1.73 1.82 1.81 1.81 1.86 1.92 2.00 1.97 1.97 2.05 2.06 2.05 1.87 1.59 1.38 1.26 1.15
1.03 0.98 0.97 0.99 1.00 1.01 1.01 1.03 1.05 1.11 1.14 1.31 1.35 1.46 1.54 1.52 1.43 1.48 1.48 1.42 1.58 1.55 1.43 1.39 1.40 1.49 1.50 1.55 1.49 1.54 1.68 1.76 1.82 1.92 2.02 2.19 2.20 2.28 2.10 1.82 1.62 1.47 1.31
0.97 1.02 1.03 1.04 0.97 1.00 1.02 1.01 1.04 1.13 1.25 1.36 1.40 1.52 1.56 1.43 1.49 1.53 1.53 1.50 1.54 1.51 1.44 1.39 1.28 1.27 1.25 1.29 1.34 1.39 1.51 1.61 1.76 1.91 2.00 2.09 2.16 2.14 2.08 1.94 1.80 1.60 1.37
1.01 0.98 1.07 1.15 1.07 1.13 1.17 1.16 1.18 1.25 1.35 1.41 1.52 1.56 1.57 1.62 1.56 1.45 1.47 1.41 1.46 1.51 1.53 1.54 1.29 1.13 1.19 1.18 1.31 1.29 1.26 1.31 1.41 1.56 1.66 1.79 1.99 2.09 2.17 2.08 2.05 1.92 1.66
0.99 1.03 1.21 1.35 1.25 1.27 1.29 1.31 1.38 1.44 1.48 1.58 1.63 1.57 1.58 1.62 1.54 1.31 1.24 1.15 1.23 1.34 1.43 1.48 1.47 1.37 1.33 1.35 1.40 1.38 1.29 1.26 1.35 1.38 1.44 1.63 1.95 2.19 2.23 2.20 2.22 2.11 1.84
1.07 1.18 1.37 1.52 1.58 1.56 1.52 1.61 1.66 1.69 1.74 1.81 1.88 1.85 1.76 1.73 1.54 1.22 1.11 1.05 1.17 1.22 1.24 1.26 1.25 1.17 1.17 1.10 1.15 1.22 1.24 1.23 1.22 1.26 1.28 1.39 1.62 1.96 2.14 2.18 2.25 2.14 1.93
1.21 1.24 1.33 1.50 1.60 1.64 1.65 1.80 1.95 1.99 1.99 2.02 1.93 1.80 1.71 1.69 1.61 1.29 1.13 1.10 1.23 1.27 1.34 1.33 1.31 1.25 1.20 1.06 1.04 1.11 1.10 1.12 1.17 1.18 1.15 1.13 1.23 1.52 1.83 1.83 1.89 1.99 1.78
1.16 1.19 1.26 1.49 1.76 1.80 1.86 1.94 2.05 2.12 2.17 2.18 2.08 1.98 1.85 1.80 1.75 1.42 1.25 1.20 1.30 1.36 1.31 1.31 1.29 1.26 1.06 0.94 0.92 0.97 0.99 1.00 1.11 1.17 1.20 1.21 1.26 1.35 1.49 1.57 1.64 1.71 1.66
1.16 1.21 1.34 1.59 1.69 1.79 1.94 2.00 2.14 2.26 2.27 2.24 2.23 2.10 2.03 1.94 1.69 1.41 1.22 1.21 1.32 1.42 1.43 1.39 1.35 1.21 0.98 0.85 0.75 0.72 0.76 0.76 0.84 0.97 1.04 1.07 1.12 1.17 1.28 1.43 1.59 1.65 1.63
1.14 1.19 1.29 1.43 1.53 1.66 1.74 1.73 1.82 1.94 1.97 2.00 2.03 1.98 1.99 2.08 1.95 1.53 1.24 1.17 1.26 1.37 1.51 1.58 1.39 1.20 1.05 0.91 0.85 0.76 0.69 0.66 0.75 0.84 0.90 0.91 0.96 1.04 1.20 1.42 1.61 1.79 1.74
1.11 1.08 1.17 1.34 1.41 1.49 1.61 1.63 1.72 1.80 1.85 1.92 1.94 1.89 1.90 2.04 2.04 1.74 1.43 1.25 1.17 1.16 1.21 1.24 1.16 1.10 0.99 0.88 0.80 0.71 0.63 0.66 0.74 0.76 0.83 0.92 1.01 1.18 1.26 1.27 1.37 1.58 1.74
1.13 1.08 1.15 1.25 1.35 1.43 1.55 1.64 1.66 1.69 1.68 1.70 1.74 1.71 1.71 1.83 1.82 1.60 1.39 1.25 1.15 1.14 1.16 1.21 1.20 1.19 1.08 0.99 0.91 0.86 0.85 0.86 0.83 0.83 0.90 0.99 1.04 1.11 1.20 1.25 1.31 1.36 1.40
1.20 1.12 1.10 1.11 1.19 1.27 1.35 1.36 1.29 1.27 1.26 1.24 1.28 1.21 1.20 1.36 1.37 1.14 1.00 1.03 1.04 1.02 1.04 1.12 1.19 1.23 1.18 1.11 1.06 1.00 1.00 0.98 0.93 0.95 0.98 1.04 1.08 1.10 1.15 1.29 1.40 1.40 1.30
1.38 1.23 1.10 1.03 1.05 1.11 1.22 1.30 1.32 1.21 1.13 1.06 1.04 0.94 0.87 1.08 1.16 1.02 0.89 0.85 0.82 0.83 0.90 0.99 1.03 1.11 1.14 1.05 0.96 0.90 0.90 0.91 0.96 1.00 1.00 1.03 1.09 1.13 1.18 1.27 1.39 1.46 1.37
1.32 1.21 1.06 0.99 0.99 0.98 1.04 1.14 1.21 1.28 1.25 1.09 0.94 0.84 0.75 0.87 0.99 0.94 0.83 0.74 0.72 0.74 0.79 0.88 0.95 0.99 1.05 1.01 0.93 0.93 0.96 1.01 1.01 1.01 1.03 1.05 1.10 1.15 1.20 1.25 1.31 1.37 1.35
1.20 1.11 1.00 0.97 0.98 0.92 0.86 0.92 1.00 1.08 1.18 1.14 0.97 0.88 0.80 0.85 0.92 0.88 0.76 0.66 0.70 0.70 0.72 0.77 0.84 0.91 0.94 0.92 0.92 0.95 0.97 1.00 0.95 0.96 1.02 1.07 1.05 1.10 1.11 1.16 1.24 1.33 1.35
0.97 0.89 0.85 0.88 0.87 0.84 0.82 0.86 0.95 1.05 1.12 1.11 0.98 0.86 0.75 0.77 0.86 0.85 0.74 0.68 0.67 0.64 0.63 0.69 0.76 0.81 0.86 0.89 0.96 1.00 0.98 1.01 1.03 0.98 1.02 1.09 1.04 1.03 1.03 1.05 1.15 1.21 1.22
0.82 0.71 0.62 0.65 0.74 0.78 0.82 0.90 1.01 1.09 1.11 1.02 0.87 0.72 0.63 0.60 0.71 0.72 0.74 0.75 0.72 0.70 0.70 0.68 0.72 0.77 0.80 0.87 0.95 1.01 1.02 1.04 1.07 1.01 1.00 1.08 1.06 1.07 1.09 1.07 1.08 1.19 1.20
0.80 0.67 0.55 0.55 0.61 0.66 0.76 0.89 0.97 0.98 0.92 0.86 0.78 0.68 0.63 0.60 0.65 0.68 0.73 0.72 0.69 0.68 0.65 0.65 0.68 0.74 0.79 0.83 0.88 0.95 0.97 0.97 1.01 1.04 1.03 1.07 1.09 1.07 1.10 1.09 1.07 1.17 1.26
0.73 0.56 0.45 0.43 0.47 0.51 0.63 0.80 0.86 0.81 0.73 0.70 0.69 0.67 0.67 0.67 0.66 0.68 0.71 0.69 0.66 0.64 0.60 0.63 0.66 0.70 0.76 0.77 0.77 0.83 0.88 0.89 0.88 0.95 1.04 1.06 1.09 1.11 1.12 1.15 1.14 1.17 1.26
0.60 0.46 0.35 0.31 0.35 0.43 0.58 0.75 0.76 0.68 0.64 0.66 0.66 0.68 0.68 0.67 0.66 0.66 0.68 0.69 0.69 0.67 0.64 0.65 0.65 0.63 0.66 0.72 0.71 0.68 0.69 0.68 0.68 0.77 0.88 0.98 1.03 1.12 1.12 1.12 1.16 1.14 1.22
0.53 0.43 0.33 0.28 0.31 0.45 0.63 0.74 0.67 0.60 0.59 0.60 0.58 0.62 0.66 0.69 0.69 0.70 0.69 0.71 0.71 0.73 0.70 0.65 0.64 0.61 0.56 0.57 0.60 0.58 0.56 0.48 0.48 0.58 0.70 0.82 0.88 0.98 1.04 1.04 1.12 1.15 1.17
0.48 0.45 0.38 0.34 0.38 0.51 0.63 0.68 0.63 0.59 0.62 0.59 0.57 0.60 0.65 0.69 0.68 0.66 0.67 0.68 0.67 0.65 0.59 0.55 0.54 0.55 0.54 0.51 0.47 0.43 0.38 0.35 0.37 0.45 0.55 0.68 0.78 0.87 0.93 0.98 1.03 1.12 1.12

GEFSGL_prec_meanprecacc_192.txt.gz
Total_Precipitation_Accumulation
1.07 1.09 1.18 1.34 1.41 1.41 1.51 1.47 1.37 1.29 1.26 1.20 1.15 1.17 1.17 1.14 1.23 1.41 1.56 1.74 1.87 1.92 1.89 1.91 1.91 1.99 2.03 1.91 1.96 2.01 2.17 2.35 2.10 1.68 1.74 1.90 1.84 1.65 1.51 1.40 1.29 1.26 1.21
1.03 1.12 1.18 1.28 1.32 1.27 1.30 1.37 1.41 1.32 1.25 1.25 1.27 1.23 1.12 1.10 1.20 1.35 1.52 1.71 1.87 1.97 2.04 2.08 1.92 1.97 2.08 2.02 2.01 2.02 2.10 2.33 2.28 2.15 2.10 2.17 2.11 1.89 1.67 1.45 1.18 1.05 1.10
1.13 1.14 1.11 1.16 1.11 1.11 1.15 1.20 1.28 1.31 1.33 1.35 1.37 1.32 1.29 1.35 1.47 1.54 1.59 1.71 1.86 1.95 2.02 1.99 1.96 2.06 1.99 2.02 2.06 2.05 2.03 2.03 2.13 2.13 2.07 2.18 2.13 1.89 1.68 1.43 1.22 1.21 1.12
0.99 1.00 1.01 1.02 1.04 1.11 1.16 1.17 1.19 1.19 1.27 1.32 1.33 1.40 1.45 1.52 1.57 1.57 1.55 1.58 1.67 1.77 1.76 1.67 1.61 1.68 1.76 1.86 1.84 1.85 1.90 1.96 2.05 2.03 2.05 2.14 2.14 2.12 1.93 1.65 1.47 1.35 1.25
1.03 0.99 0.99 1.01 1.03 1.05 1.07 1.07 1.09 1.15 1.18 1.35 1.39 1.49 1.57 1.55 1.46 1.50 1.51 1.44 1.62 1.59 1.46 1.42 1.43 1.51 1.52 1.58 1.51 1.57 1.71 1.79 1.88 1.99 2.07 2.24 2.26 2.34 2.16 1.88 1.70 1.55 1.39
0.98 1.03 1.05 1.05 0.99 1.03 1.04 1.02 1.06 1.16 1.27 1.40 1.44 1.55 1.59 1.45 1.50 1.54 1.55 1.53 1.58 1.54 1.47 1.41 1.31 1.30 1.27 1.30 1.35 1.41 1.53 1.65 1.82 1.97 2.04 2.13 2.20 2.18 2.12 1.98 1.85 1.66 1.42
1.02 1.00 1.08 1.16 1.08 1.14 1.17 1.16 1.19 1.26 1.36 1.43 1.55 1.59 1.59 1.64 1.57 1.46 1.49 1.44 1.49 1.53 1.56 1.56 1.31 1.15 1.21 1.20 1.33 1.31 1.27 1.31 1.41 1.57 1.69 1.82 2.01 2.11 2.19 2.11 2.08 1.96 1.69
1.01 1.05 1.22 1.36 1.27 1.28 1.29 1.32 1.38 1.45 1.49 1.59 1.64 1.57 1.58 1.63 1.56 1.32 1.25 1.17 1.26 1.38 1.47 1.52 1.50 1.40 1.36 1.37 1.42 1.39 1.29 1.27 1.35 1.38 1.46 1.65 1.97 2.21 2.25 2.22 2.25 2.14 1.87
1.08 1.19 1.38 1.53 1.59 1.57 1.53 1.62 1.67 1.70 1.75 1.82 1.89 1.86 1.77 1.74 1.55 1.23 1.12 1.09 1.23 1.30 1.34 1.34 1.32 1.22 1.21 1.13 1.16 1.22 1.24 1.23 1.23 1.27 1.30 1.41 1.63 1.97 2.16 2.20 2.28 2.17 1.97
1.23 1.26 1.34 1.51 1.61 1.65 1.65 1.81 1.95 2.00 2.00 2.03 1.94 1.81 1.72 1.70 1.61 1.30 1.13 1.11 1.25 1.32 1.40 1.38 1.35 1.28 1.22 1.08 1.05 1.12 1.11 1.13 1.18 1.18 1.15 1.14 1.24 1.53 1.84 1.85 1.90 2.02 1.81
1.19 1.22 1.29 1.51 1.77 1.81 1.87 1.94 2.05 2.13 2.18 2.19 2.09 1.98 1.86 1.81 1.76 1.43 1.25 1.21 1.30 1.36 1.31 1.32 1.29 1.26 1.07 0.95 0.95 1.00 1.01 1.01 1.11 1.17 1.20 1.21 1.27 1.36 1.49 1.57 1.65 1.72 1.69
1.22 1.26 1.37 1.60 1.70 1.80 1.95 2.00 2.15 2.27 2.28 2.25 2.24 2.11 2.04 1.95 1.70 1.42 1.23 1.22 1.32 1.43 1.43 1.39 1.36 1.22 0.98 0.85 0.76 0.73 0.76 0.77 0.84 0.98 1.04 1.07 1.12 1.17 1.28 1.44 1.61 1.67 1.65
1.18 1.21 1.31 1.45 1.54 1.67 1.75 1.74 1.83 1.96 1.98 2.01 2.04 2.00 2.01 2.11 1.97 1.54 1.24 1.18 1.26 1.37 1.51 1.59 1.39 1.20 1.06 0.92 0.85 0.76 0.69 0.66 0.75 0.84 0.90 0.91 0.96 1.04 1.20 1.42 1.61 1.80 1.75
1.14 1.10 1.19 1.35 1.43 1.50 1.62 1.64 1.73 1.80 1.86 1.93 1.95 1.92 1.93 2.08 2.08 1.76 1.44 1.25 1.17 1.16 1.21 1.24 1.16 1.10 0.99 0.88 0.80 0.71 0.63 0.66 0.74 0.77 0.83 0.92 1.01 1.18 1.26 1.27 1.37 1.58 1.75
1.16 1.11 1.17 1.28 1.37 1.45 1.56 1.65 1.67 1.70 1.68 1.71 1.75 1.72 1.72 1.84 1.84 1.60 1.39 1.26 1.16 1.14 1.16 1.22 1.20 1.19 1.09 0.99 0.92 0.86 0.85 0.86 0.83 0.84 0.90 0.99 1.04 1.11 1.20 1.26 1.32 1.37 1.41
1.23 1.15 1.13 1.14 1.21 1.28 1.36 1.37 1.30 1.27 1.26 1.24 1.28 1.21 1.20 1.36 1.37 1.14 1.01 1.04 1.04 1.02 1.04 1.12 1.19 1.23 1.18 1.11 1.06 1.00 1.00 0.98 0.94 0.95 0.99 1.04 1.08 1.10 1.16 1.29 1.41 1.41 1.31
1.42 1.26 1.13 1.06 1.08 1.12 1.23 1.31 1.33 1.22 1.14 1.07 1.04 0.94 0.87 1.08 1.16 1.02 0.90 0.86 0.83 0.84 0.90 0.99 1.03 1.11 1.15 1.06 0.97 0.91 0.90 0.92 0.97 1.00 1.01 1.04 1.09 1.14 1.19 1.28 1.39 1.46 1.38
1.36 1.25 1.10 1.03 1.02 1.00 1.05 1.15 1.22 1.28 1.26 1.10 0.94 0.84 0.76 0.88 0.99 0.95 0.84 0.75 0.73 0.74 0.79 0.88 0.96 1.00 1.06 1.02 0.94 0.94 0.97 1.02 1.02 1.02 1.03 1.05 1.10 1.15 1.21 1.25 1.31 1.38 1.37
1.22 1.13 1.03 0.99 1.00 0.93 0.86 0.93 1.01 1.08 1.18 1.15 0.98 0.88 0.80 0.85 0.92 0.88 0.77 0.67 0.70 0.70 0.72 0.78 0.85 0.92 0.95 0.93 0.93 0.96 0.97 1.01 0.96 0.97 1.03 1.08 1.06 1.11 1.11 1.16 1.25 1.34 1.36
0.99 0.90 0.87 0.89 0.88 0.85 0.83 0.87 0.96 1.05 1.13 1.12 1.00 0.87 0.76 0.78 0.86 0.85 0.74 0.69 0.68 0.65 0.64 0.69 0.77 0.82 0.87 0.90 0.97 1.00 0.98 1.02 1.04 0.99 1.02 1.09 1.04 1.04 1.04 1.06 1.17 1.22 1.23
0.83 0.72 0.62 0.65 0.74 0.79 0.83 0.91 1.02 1.09 1.12 1.04 0.88 0.73 0.64 0.60 0.71 0.73 0.75 0.76 0.72 0.71 0.70 0.69 0.73 0.78 0.81 0.88 0.96 1.01 1.03 1.05 1.07 1.01 1.00 1.08 1.07 1.08 1.11 1.08 1.10 1.21 1.22
0.81 0.67 0.55 0.55 0.62 0.66 0.77 0.90 0.98 0.98 0.93 0.87 0.79 0.69 0.64 0.60 0.66 0.69 0.73 0.73 0.69 0.69 0.65 0.66 0.69 0.76 0.80 0.85 0.91 0.97 0.99 0.99 1.02 1.05 1.04 1.07 1.10 1.08 1.11 1.10 1.08 1.19 1.28
0.74 0.57 0.45 0.43 0.47 0.52 0.64 0.81 0.87 0.81 0.73 0.71 0.70 0.68 0.67 0.68 0.66 0.68 0.71 0.69 0.67 0.64 0.61 0.65 0.69 0.73 0.80 0.81 0.80 0.86 0.91 0.91 0.90 0.96 1.05 1.07 1.09 1.12 1.13 1.16 1.16 1.19 1.28
0.61 0.47 0.36 0.32 0.36 0.45 0.59 0.76 0.76 0.68 0.64 0.66 0.67 0.69 0.69 0.68 0.66 0.67 0.68 0.69 0.69 0.67 0.65 0.66 0.66 0.64 0.67 0.74 0.73 0.69 0.70 0.68 0.69 0.77 0.89 0.99 1.04 1.13 1.13 1.14 1.17 1.15 1.24
0.54 0.45 0.35 0.30 0.33 0.46 0.64 0.74 0.68 0.61 0.60 0.61 0.58 0.62 0.67 0.69 0.70 0.70 0.69 0.72 0.71 0.73 0.71 0.67 0.66 0.63 0.58 0.58 0.61 0.58 0.56 0.49 0.49 0.58 0.70 0.83 0.89 1.00 1.05 1.05 1.14 1.17 1.19
0.50 0.47 0.40 0.36 0.39 0.51 0.64 0.68 0.63 0.59 0.62 0.59 0.58 0.60 0.65 0.69 0.69 0.66 0.67 0.68 0.67 0.65 0.59 0.56 0.55 0.56 0.55 0.52 0.47 0.43 0.38 0.36 0.38 0.45 0.55 0.68 0.79 0.88 0.94 0.99 1.04 1.13 1.13

GEFSGL_prec_meanprecacc_198.txt.gz
Total_Precipitation_Accumulation
1.09 1.10 1.21 1.38 1.46 1.48 1.59 1.55 1.44 1.35 1.32 1.27 1.22 1.24 1.24 1.21 1.31 1.50 1.65 1.83 1.94 1.99 1.97 2.01 2.01 2.09 2.11 1.98 2.03 2.09 2.26 2.44 2.18 1.75 1.82 1.97 1.92 1.72 1.57 1.47 1.38 1.34 1.29
1.05 1.13 1.19 1.30 1.37 1.37 1.40 1.45 1.49 1.40 1.33 1.33 1.35 1.32 1.20 1.17 1.27 1.41 1.57 1.75 1.92 2.02 2.11 2.18 2.01 2.06 2.17 2.09 2.07 2.09 2.18 2.42 2.36 2.23 2.20 2.25 2.18 1.95 1.74 1.52 1.23 1.12 1.18
1.14 1.15 1.11 1.18 1.16 1.18 1.23 1.27 1.35 1.40 1.42 1.44 1.45 1.40 1.36 1.42 1.52 1.59 1.64 1.77 1.91 2.00 2.08 2.06 2.01 2.12 2.04 2.08 2.13 2.11 2.10 2.12 2.23 2.23 2.15 2.24 2.18 1.95 1.74 1.49 1.27 1.28 1.19
0.99 1.01 1.03 1.03 1.06 1.15 1.22 1.24 1.27 1.27 1.36 1.39 1.39 1.46 1.51 1.57 1.62 1.62 1.61 1.64 1.72 1.80 1.79 1.70 1.65 1.71 1.78 1.91 1.91 1.91 1.98 2.04 2.12 2.09 2.09 2.17 2.18 2.16 1.97 1.69 1.50 1.40 1.30
1.04 1.01 1.01 1.03 1.05 1.08 1.12 1.12 1.14 1.20 1.23 1.39 1.43 1.52 1.60 1.59 1.50 1.54 1.56 1.48 1.65 1.62 1.49 1.45 1.46 1.55 1.56 1.62 1.55 1.61 1.75 1.84 1.92 2.03 2.11 2.27 2.29 2.37 2.20 1.91 1.73 1.59 1.43
1.00 1.06 1.09 1.09 1.03 1.06 1.08 1.06 1.08 1.17 1.29 1.42 1.46 1.57 1.62 1.48 1.52 1.56 1.58 1.57 1.62 1.57 1.51 1.46 1.35 1.34 1.31 1.34 1.38 1.43 1.55 1.68 1.85 2.01 2.08 2.17 2.23 2.20 2.15 2.01 1.88 1.68 1.45
1.05 1.03 1.12 1.20 1.12 1.18 1.21 1.19 1.21 1.27 1.37 1.44 1.56 1.60 1.60 1.65 1.57 1.47 1.50 1.47 1.53 1.58 1.60 1.60 1.35 1.18 1.25 1.23 1.36 1.33 1.29 1.33 1.43 1.59 1.72 1.85 2.04 2.14 2.22 2.14 2.12 1.99 1.72
1.04 1.08 1.26 1.40 1.31 1.31 1.33 1.34 1.40 1.46 1.50 1.60 1.65 1.58 1.59 1.64 1.56 1.32 1.26 1.19 1.29 1.41 1.50 1.55 1.54 1.44 1.40 1.40 1.45 1.41 1.31 1.27 1.36 1.39 1.47 1.68 1.99 2.24 2.27 2.25 2.27 2.18 1.91
1.11 1.22 1.42 1.57 1.62 1.59 1.55 1.64 1.68 1.71 1.75 1.83 1.89 1.87 1.78 1.75 1.55 1.24 1.13 1.10 1.24 1.32 1.37 1.38 1.36 1.28 1.26 1.18 1.20 1.25 1.25 1.24 1.24 1.27 1.30 1.42 1.65 2.00 2.18 2.23 2.31 2.22 2.01
1.25 1.28 1.40 1.56 1.64 1.66 1.67 1.82 1.97 2.00 2.00 2.04 1.94 1.82 1.73 1.71 1.62 1.30 1.14 1.11 1.26 1.34 1.43 1.42 1.38 1.30 1.24 1.09 1.07 1.13 1.13 1.14 1.18 1.19 1.16 1.14 1.25 1.55 1.85 1.87 1.93 2.05 1.84
1.21 1.23 1.32 1.53 1.78 1.81 1.87 1.95 2.06 2.13 2.18 2.20 2.10 1.99 1.87 1.81 1.77 1.43 1.27 1.22 1.31 1.37 1.32 1.34 1.32 1.28 1.07 0.96 0.96 1.01 1.02 1.02 1.12 1.18 1.20 1.21 1.27 1.36 1.50 1.58 1.66 1.74 1.71
1.24 1.27 1.37 1.61 1.71 1.80 1.96 2.01 2.16 2.28 2.29 2.26 2.25 2.12 2.04 1.95 1.71 1.42 1.23 1.22 1.32 1.43 1.43 1.40 1.36 1.22 0.98 0.85 0.76 0.73 0.77 0.77 0.84 0.98 1.04 1.08 1.12 1.18 1.29 1.45 1.62 1.68 1.67
1.21 1.24 1.33 1.46 1.55 1.68 1.76 1.74 1.83 1.97 1.99 2.02 2.05 2.01 2.02 2.11 1.97 1.55 1.25 1.18 1.26 1.37 1.52 1.59 1.39 1.21 1.06 0.92 0.85 0.77 0.69 0.66 0.75 0.84 0.91 0.92 0.96 1.05 1.21 1.43 1.62 1.81 1.76
1.16 1.13 1.22 1.38 1.45 1.53 1.64 1.65 1.74 1.81 1.87 1.94 1.96 1.92 1.94 2.08 2.09 1.77 1.44 1.25 1.17 1.16 1.21 1.24 1.17 1.10 1.00 0.88 0.80 0.71 0.63 0.66 0.74 0.77 0.83 0.92 1.02 1.19 1.27 1.28 1.38 1.59 1.76
1.18 1.13 1.21 1.32 1.41 1.47 1.58 1.66 1.68 1.71 1.69 1.72 1.75 1.72 1.73 1.85 1.84 1.61 1.40 1.26 1.16 1.15 1.17 1.22 1.21 1.19 1.09 0.99 0.92 0.86 0.85 0.86 0.83 0.84 0.90 0.99 1.04 1.12 1.21 1.27 1.33 1.38 1.42
1.25 1.16 1.14 1.15 1.24 1.31 1.39 1.38 1.31 1.28 1.26 1.24 1.28 1.21 1.20 1.36 1.37 1.14 1.01 1.04 1.05 1.02 1.05 1.13 1.20 1.24 1.19 1.12 1.06 1.01 1.01 0.98 0.94 0.95 0.99 1.04 1.09 1.11 1.17 1.30 1.42 1.42 1.32
1.43 1.27 1.14 1.09 1.10 1.15 1.25 1.33 1.35 1.24 1.14 1.07 1.04 0.94 0.87 1.08 1.16 1.02 0.90 0.86 0.84 0.84 0.91 0.99 1.04 1.12 1.16 1.07 0.98 0.92 0.91 0.93 0.98 1.02 1.02 1.05 1.10 1.15 1.20 1.29 1.40 1.47 1.39
1.37 1.27 1.12 1.05 1.03 1.02 1.07 1.17 1.24 1.30 1.27 1.10 0.95 0.84 0.76 0.88 1.00 0.95 0.84 0.75 0.74 0.75 0.80 0.89 0.97 1.02 1.08 1.04 0.96 0.95 0.98 1.03 1.03 1.03 1.04 1.06 1.11 1.16 1.21 1.26 1.32 1.38 1.38
1.23 1.14 1.04 1.01 1.02 0.95 0.89 0.96 1.03 1.10 1.20 1.16 0.98 0.89 0.81 0.86 0.93 0.89 0.78 0.68 0.71 0.72 0.73 0.79 0.86 0.93 0.96 0.95 0.95 0.97 0.99 1.02 0.97 0.98 1.03 1.09 1.07 1.12 1.12 1.17 1.26 1.34 1.37
1.00 0.91 0.88 0.91 0.90 0.87 0.86 0.90 0.99 1.08 1.15 1.13 1.01 0.88 0.77 0.79 0.87 0.86 0.75 0.70 0.69 0.67 0.65 0.72 0.79 0.84 0.88 0.91 0.98 1.02 0.99 1.03 1.05 1.00 1.03 1.10 1.05 1.05 1.05 1.07 1.18 1.23 1.23
0.84 0.73 0.64 0.67 0.76 0.80 0.85 0.92 1.03 1.11 1.13 1.04 0.89 0.74 0.65 0.61 0.72 0.73 0.76 0.77 0.74 0.73 0.73 0.71 0.74 0.79 0.82 0.89 0.97 1.02 1.03 1.06 1.08 1.03 1.02 1.10 1.09 1.10 1.13 1.10 1.12 1.22 1.23
0.83 0.69 0.57 0.57 0.63 0.67 0.78 0.90 0.99 0.99 0.94 0.88 0.80 0.69 0.64 0.61 0.66 0.69 0.75 0.74 0.71 0.70 0.66 0.67 0.70 0.76 0.81 0.85 0.91 0.97 1.00 1.00 1.04 1.07 1.06 1.10 1.12 1.10 1.13 1.12 1.10 1.20 1.29
0.76 0.58 0.46 0.44 0.48 0.53 0.65 0.82 0.88 0.82 0.75 0.72 0.71 0.69 0.68 0.69 0.67 0.69 0.72 0.71 0.68 0.66 0.62 0.66 0.70 0.74 0.80 0.81 0.80 0.86 0.91 0.92 0.91 0.97 1.06 1.08 1.11 1.13 1.14 1.17 1.17 1.20 1.29
0.62 0.48 0.37 0.33 0.37 0.45 0.60 0.77 0.78 0.70 0.66 0.68 0.68 0.70 0.69 0.68 0.67 0.68 0.70 0.71 0.70 0.69 0.66 0.67 0.67 0.65 0.68 0.74 0.73 0.70 0.70 0.69 0.69 0.78 0.90 1.00 1.05 1.14 1.14 1.15 1.18 1.17 1.25
0.56 0.47 0.36 0.31 0.34 0.48 0.66 0.77 0.70 0.63 0.62 0.62 0.60 0.64 0.68 0.70 0.70 0.70 0.70 0.72 0.72 0.74 0.72 0.68 0.66 0.64 0.59 0.59 0.61 0.59 0.57 0.49 0.49 0.59 0.71 0.84 0.90 1.00 1.05 1.06 1.14 1.18 1.20
0.54 0.50 0.43 0.38 0.41 0.54 0.66 0.71 0.65 0.62 0.64 0.61 0.59 0.62 0.67 0.70 0.70 0.67 0.68 0.69 0.68 0.66 0.60 0.56 0.55 0.56 0.55 0.52 0.48 0.44 0.39 0.37 0.39 0.47 0.56 0.69 0.80 0.88 0.95 1.00 1.05 1.14 1.14

GEFSGL_prec_meanprecacc_204.txt.gz
Total_Precipitation_Accumulation
1.10 1.11 1.22 1.39 1.48 1.53 1.66 1.63 1.53 1.49 1.49 1.41 1.35 1.35 1.33 1.28 1.37 1.57 1.70 1.88 2.01 2.06 2.03 2.06 2.06 2.12 2.14 2.01 2.07 2.16 2.32 2.49 2.22 1.79 1.86 2.01 1.99 1.80 1.63 1.51 1.41 1.37 1.31
1.06 1.14 1.20 1.31 1.38 1.41 1.45 1.52 1.57 1.53 1.56 1.52 1.46 1.40 1.27 1.24 1.36 1.50 1.66 1.82 1.96 2.07 2.16 2.22 2.04 2.09 2.20 2.13 2.12 2.15 2.23 2.47 2.39 2.26 2.24 2.31 2.24 2.02 1.79 1.55 1.26 1.14 1.20
1.15 1.16 1.12 1.18 1.17 1.21 1.28 1.34 1.44 1.50 1.55 1.60 1.60 1.51 1.46 1.49 1.59 1.64 1.69 1.83 1.96 2.04 2.13 2.11 2.05 2.16 2.07 2.10 2.16 2.14 2.13 2.17 2.29 2.27 2.19 2.28 2.23 2.00 1.79 1.53 1.31 1.31 1.21
1.00 1.02 1.04 1.05 1.09 1.18 1.27 1.31 1.33 1.32 1.40 1.44 1.43 1.50 1.54 1.60 1.64 1.65 1.64 1.68 1.76 1.84 1.83 1.74 1.67 1.73 1.80 1.94 1.94 1.94 2.01 2.08 2.17 2.13 2.12 2.20 2.21 2.22 2.05 1.76 1.57 1.44 1.33
1.06 1.03 1.04 1.08 1.09 1.13 1.16 1.17 1.19 1.26 1.27 1.42 1.45 1.54 1.61 1.60 1.52 1.56 1.58 1.51 1.68 1.66 1.53 1.48 1.48 1.57 1.60 1.67 1.60 1.67 1.80 1.88 1.96 2.07 2.15 2.31 2.33 2.43 2.27 2.00 1.83 1.68 1.48
1.03 1.12 1.16 1.15 1.08 1.12 1.13 1.10 1.13 1.25 1.34 1.43 1.47 1.58 1.62 1.49 1.53 1.58 1.60 1.60 1.65 1.61 1.54 1.48 1.38 1.38 1.36 1.39 1.44 1.48 1.60 1.72 1.89 2.06 2.12 2.20 2.27 2.24 2.19 2.06 1.95 1.76 1.49
1.09 1.08 1.20 1.28 1.19 1.25 1.28 1.24 1.24 1.29 1.39 1.46 1.57 1.61 1.60 1.66 1.59 1.48 1.51 1.49 1.56 1.60 1.62 1.61 1.37 1.20 1.28 1.27 1.40 1.37 1.33 1.38 1.48 1.63 1.74 1.87 2.06 2.16 2.25 2.16 2.14 2.02 1.75
1.08 1.13 1.33 1.48 1.39 1.39 1.40 1.40 1.44 1.48 1.51 1.62 1.66 1.58 1.59 1.64 1.57 1.34 1.28 1.20 1.31 1.43 1.52 1.56 1.55 1.46 1.43 1.43 1.49 1.47 1.38 1.34 1.40 1.41 1.49 1.69 2.02 2.27 2.30 2.26 2.28 2.19 1.92
1.15 1.27 1.50 1.70 1.73 1.68 1.62 1.68 1.71 1.73 1.76 1.83 1.90 1.87 1.78 1.75 1.57 1.26 1.14 1.11 1.26 1.33 1.39 1.39 1.37 1.29 1.30 1.22 1.25 1.30 1.31 1.27 1.25 1.28 1.31 1.44 1.68 2.02 2.21 2.24 2.32 2.23 2.02
1.28 1.31 1.44 1.66 1.73 1.71 1.70 1.84 1.98 2.02 2.01 2.04 1.95 1.82 1.73 1.72 1.63 1.32 1.15 1.12 1.27 1.35 1.44 1.43 1.39 1.31 1.26 1.12 1.09 1.15 1.14 1.14 1.19 1.19 1.16 1.15 1.25 1.56 1.87 1.89 1.95 2.06 1.85
1.24 1.26 1.35 1.57 1.88 1.86 1.90 1.97 2.08 2.15 2.19 2.20 2.10 1.99 1.87 1.82 1.78 1.45 1.28 1.23 1.32 1.38 1.33 1.34 1.32 1.28 1.08 0.97 0.96 1.01 1.02 1.02 1.12 1.18 1.20 1.22 1.27 1.37 1.51 1.59 1.67 1.75 1.72
1.29 1.32 1.40 1.65 1.75 1.83 1.98 2.04 2.18 2.29 2.29 2.26 2.26 2.12 2.05 1.96 1.71 1.43 1.24 1.23 1.33 1.44 1.44 1.40 1.36 1.22 0.98 0.86 0.76 0.74 0.77 0.78 0.85 0.99 1.05 1.08 1.13 1.18 1.29 1.45 1.62 1.69 1.67
1.26 1.28 1.37 1.51 1.59 1.74 1.82 1.80 1.86 1.97 1.99 2.02 2.06 2.03 2.03 2.11 1.98 1.55 1.25 1.18 1.26 1.37 1.52 1.59 1.39 1.21 1.06 0.92 0.86 0.77 0.69 0.66 0.76 0.85 0.91 0.92 0.97 1.05 1.21 1.43 1.63 1.82 1.77
1.22 1.18 1.26 1.43 1.52 1.62 1.73 1.70 1.77 1.83 1.88 1.96 1.98 1.94 1.95 2.09 2.09 1.77 1.44 1.25 1.17 1.16 1.22 1.25 1.17 1.11 1.00 0.89 0.80 0.72 0.63 0.67 0.74 0.77 0.84 0.92 1.02 1.19 1.27 1.29 1.39 1.60 1.77
1.24 1.18 1.25 1.36 1.47 1.54 1.63 1.70 1.72 1.74 1.72 1.75 1.77 1.73 1.74 1.85 1.84 1.61 1.40 1.26 1.16 1.15 1.17 1.23 1.21 1.20 1.09 1.00 0.92 0.87 0.86 0.87 0.84 0.84 0.91 1.00 1.05 1.12 1.21 1.28 1.35 1.39 1.43
1.30 1.21 1.18 1.18 1.28 1.35 1.42 1.42 1.35 1.32 1.30 1.28 1.30 1.23 1.21 1.37 1.37 1.14 1.01 1.04 1.05 1.02 1.05 1.13 1.21 1.25 1.20 1.12 1.07 1.02 1.02 1.00 0.95 0.96 1.00 1.05 1.09 1.12 1.18 1.32 1.44 1.44 1.33
1.47 1.31 1.17 1.11 1.13 1.18 1.29 1.36 1.39 1.28 1.19 1.11 1.07 0.96 0.89 1.11 1.18 1.03 0.90 0.86 0.84 0.85 0.91 1.00 1.04 1.13 1.17 1.08 0.99 0.93 0.92 0.94 1.00 1.03 1.03 1.06 1.12 1.16 1.21 1.30 1.42 1.49 1.40
1.39 1.30 1.14 1.07 1.06 1.04 1.10 1.19 1.27 1.32 1.29 1.12 0.96 0.85 0.76 0.88 1.00 0.95 0.85 0.75 0.74 0.75 0.80 0.90 0.97 1.02 1.09 1.05 0.97 0.96 0.99 1.04 1.04 1.04 1.05 1.07 1.12 1.17 1.22 1.27 1.33 1.39 1.39
1.26 1.17 1.06 1.03 1.04 0.97 0.91 0.98 1.05 1.12 1.21 1.17 0.99 0.90 0.81 0.86 0.93 0.90 0.78 0.68 0.71 0.72 0.74 0.80 0.87 0.94 0.97 0.96 0.96 0.99 1.00 1.03 0.98 0.99 1.04 1.09 1.07 1.12 1.13 1.18 1.27 1.36 1.38
1.02 0.94 0.90 0.92 0.92 0.88 0.87 0.90 0.99 1.08 1.16 1.15 1.03 0.90 0.78 0.80 0.87 0.87 0.76 0.70 0.70 0.67 0.66 0.72 0.80 0.85 0.90 0.92 0.99 1.03 1.00 1.04 1.06 1.01 1.04 1.11 1.06 1.06 1.06 1.08 1.19 1.25 1.25
0.87 0.75 0.66 0.69 0.77 0.81 0.86 0.93 1.03 1.11 1.13 1.05 0.90 0.75 0.65 0.62 0.72 0.74 0.76 0.78 0.75 0.74 0.74 0.72 0.75 0.81 0.84 0.91 0.99 1.04 1.05 1.07 1.09 1.04 1.03 1.11 1.10 1.11 1.14 1.11 1.13 1.24 1.25
0.86 0.72 0.59 0.58 0.64 0.68 0.79 0.91 0.99 1.00 0.95 0.89 0.80 0.70 0.65 0.62 0.67 0.70 0.75 0.75 0.71 0.70 0.67 0.67 0.70 0.77 0.81 0.86 0.92 0.98 1.01 1.01 1.04 1.07 1.07 1.11 1.13 1.11 1.14 1.13 1.11 1.21 1.30
0.81 0.63 0.49 0.46 0.49 0.54 0.66 0.83 0.89 0.83 0.75 0.72 0.71 0.69 0.69 0.70 0.68 0.70 0.73 0.71 0.69 0.66 0.63 0.67 0.71 0.75 0.81 0.82 0.81 0.87 0.91 0.92 0.91 0.97 1.07 1.08 1.11 1.13 1.15 1.17 1.17 1.20 1.29
0.71 0.54 0.41 0.36 0.39 0.48 0.62 0.78 0.79 0.70 0.66 0.68 0.68 0.70 0.70 0.69 0.68 0.69 0.71 0.72 0.71 0.69 0.66 0.67 0.67 0.65 0.69 0.75 0.74 0.70 0.71 0.69 0.69 0.78 0.90 1.01 1.05 1.14 1.14 1.15 1.19 1.17 1.26
0.61 0.50 0.39 0.33 0.37 0.50 0.68 0.78 0.71 0.64 0.62 0.63 0.61 0.65 0.69 0.71 0.72 0.72 0.71 0.73 0.73 0.74 0.73 0.68 0.67 0.64 0.59 0.59 0.61 0.59 0.57 0.50 0.49 0.59 0.71 0.84 0.90 1.00 1.06 1.06 1.15 1.18 1.20
0.58 0.54 0.47 0.41 0.45 0.57 0.69 0.73 0.67 0.63 0.66 0.63 0.61 0.64 0.69 0.72 0.71 0.69 0.70 0.70 0.70 0.68 0.62 0.58 0.57 0.57 0.55 0.53 0.48 0.44 0.39 0.37 0.40 0.47 0.56 0.69 0.80 0.89 0.96 1.00 1.05 1.14 1.14

GEFSGL_prec_meanprecacc_210.txt.gz
Total_Precipitation_Accumulation
1.10 1.12 1.23 1.39 1.49 1.54 1.67 1.65 1.56 1.52 1.54 1.49 1.45 1.46 1.43 1.36 1.44 1.63 1.76 1.95 2.07 2.12 2.10 2.13 2.11 2.18 2.19 2.06 2.12 2.21 2.38 2.55 2.26 1.84 1.90 2.05 2.02 1.83 1.68 1.54 1.44 1.39 1.35
1.06 1.15 1.21 1.31 1.39 1.42 1.46 1.53 1.60 1.56 1.61 1.58 1.53 1.51 1.39 1.35 1.44 1.56 1.71 1.87 2.01 2.13 2.22 2.29 2.09 2.15 2.26 2.18 2.17 2.19 2.28 2.53 2.44 2.31 2.27 2.34 2.27 2.04 1.83 1.59 1.28 1.15 1.22
1.16 1.16 1.13 1.19 1.19 1.22 1.29 1.36 1.48 1.53 1.58 1.63 1.64 1.57 1.51 1.55 1.64 1.70 1.74 1.88 2.01 2.09 2.18 2.16 2.10 2.21 2.12 2.15 2.21 2.19 2.17 2.22 2.32 2.30 2.22 2.29 2.24 2.03 1.85 1.58 1.34 1.33 1.23
1.01 1.02 1.05 1.08 1.12 1.21 1.29 1.32 1.37 1.36 1.43 1.47 1.47 1.54 1.58 1.63 1.67 1.68 1.67 1.71 1.80 1.88 1.87 1.77 1.71 1.76 1.83 1.97 1.97 1.97 2.03 2.11 2.20 2.16 2.15 2.23 2.24 2.25 2.09 1.80 1.62 1.48 1.35
1.06 1.04 1.08 1.14 1.13 1.16 1.19 1.20 1.22 1.30 1.31 1.46 1.48 1.57 1.63 1.61 1.53 1.58 1.59 1.52 1.69 1.67 1.54 1.49 1.49 1.59 1.61 1.68 1.61 1.68 1.83 1.92 2.00 2.10 2.18 2.35 2.37 2.47 2.31 2.03 1.89 1.75 1.51
1.04 1.15 1.23 1.22 1.12 1.15 1.16 1.14 1.18 1.30 1.38 1.46 1.49 1.60 1.64 1.50 1.55 1.59 1.61 1.60 1.66 1.62 1.55 1.49 1.38 1.39 1.38 1.41 1.45 1.50 1.62 1.75 1.93 2.09 2.16 2.25 2.30 2.27 2.21 2.09 1.98 1.81 1.55
1.11 1.13 1.25 1.32 1.23 1.28 1.31 1.29 1.29 1.34 1.43 1.48 1.58 1.62 1.62 1.66 1.60 1.49 1.52 1.50 1.57 1.61 1.63 1.63 1.38 1.21 1.31 1.29 1.42 1.39 1.36 1.41 1.51 1.66 1.78 1.90 2.09 2.18 2.27 2.19 2.17 2.05 1.79
1.12 1.17 1.38 1.53 1.43 1.44 1.45 1.45 1.48 1.52 1.54 1.63 1.67 1.59 1.60 1.65 1.58 1.34 1.28 1.20 1.31 1.44 1.53 1.58 1.56 1.47 1.44 1.45 1.51 1.50 1.42 1.40 1.47 1.47 1.52 1.72 2.03 2.28 2.33 2.30 2.32 2.22 1.94
1.21 1.32 1.54 1.74 1.78 1.73 1.68 1.74 1.77 1.77 1.79 1.85 1.90 1.87 1.78 1.75 1.57 1.26 1.15 1.12 1.26 1.34 1.39 1.39 1.38 1.29 1.31 1.24 1.26 1.32 1.34 1.31 1.29 1.31 1.33 1.45 1.70 2.04 2.23 2.27 2.35 2.25 2.03
1.38 1.39 1.50 1.70 1.78 1.75 1.74 1.87 2.01 2.03 2.02 2.05 1.95 1.82 1.73 1.72 1.63 1.32 1.16 1.13 1.27 1.36 1.45 1.43 1.39 1.32 1.27 1.14 1.10 1.17 1.16 1.17 1.22 1.22 1.19 1.17 1.27 1.57 1.88 1.90 1.96 2.07 1.86
1.35 1.38 1.47 1.69 1.97 1.91 1.93 1.99 2.09 2.15 2.19 2.20 2.10 2.00 1.87 1.82 1.78 1.46 1.29 1.23 1.32 1.38 1.34 1.34 1.32 1.29 1.09 0.99 0.97 1.02 1.05 1.05 1.15 1.20 1.22 1.23 1.28 1.38 1.52 1.60 1.68 1.75 1.73
1.42 1.44 1.54 1.76 1.86 1.91 2.02 2.07 2.19 2.30 2.30 2.26 2.26 2.13 2.05 1.96 1.72 1.44 1.26 1.24 1.33 1.44 1.44 1.40 1.36 1.22 0.98 0.86 0.77 0.74 0.78 0.78 0.85 0.99 1.05 1.08 1.13 1.19 1.30 1.46 1.63 1.69 1.68
1.37 1.37 1.45 1.59 1.66 1.79 1.87 1.83 1.88 1.99 2.00 2.04 2.08 2.04 2.05 2.14 2.00 1.57 1.26 1.19 1.26 1.37 1.52 1.59 1.39 1.21 1.06 0.93 0.86 0.77 0.70 0.67 0.76 0.85 0.91 0.92 0.97 1.05 1.22 1.44 1.64 1.83 1.77
1.31 1.26 1.35 1.52 1.63 1.73 1.80 1.77 1.83 1.88 1.92 1.99 2.01 1.97 1.99 2.13 2.13 1.80 1.47 1.28 1.19 1.17 1.22 1.25 1.17 1.11 1.00 0.89 0.81 0.72 0.63 0.67 0.74 0.77 0.84 0.92 1.03 1.20 1.28 1.30 1.40 1.61 1.78
1.37 1.30 1.36 1.46 1.56 1.67 1.73 1.78 1.79 1.80 1.77 1.78 1.81 1.77 1.78 1.90 1.90 1.67 1.47 1.32 1.21 1.17 1.18 1.23 1.21 1.20 1.10 1.00 0.93 0.87 0.86 0.88 0.84 0.84 0.91 1.00 1.06 1.13 1.23 1.29 1.36 1.41 1.45
1.45 1.38 1.32 1.27 1.35 1.42 1.48 1.47 1.40 1.36 1.34 1.31 1.34 1.27 1.27 1.43 1.42 1.18 1.04 1.07 1.06 1.03 1.05 1.13 1.21 1.25 1.20 1.12 1.08 1.02 1.02 1.00 0.96 0.97 1.01 1.06 1.10 1.13 1.19 1.33 1.45 1.45 1.35
1.54 1.38 1.26 1.18 1.18 1.21 1.32 1.39 1.42 1.30 1.21 1.13 1.09 0.98 0.91 1.13 1.21 1.06 0.93 0.88 0.85 0.85 0.91 1.00 1.04 1.13 1.17 1.08 0.99 0.93 0.92 0.95 1.00 1.04 1.04 1.07 1.13 1.18 1.23 1.32 1.44 1.51 1.42
1.44 1.34 1.19 1.13 1.11 1.07 1.12 1.22 1.28 1.34 1.30 1.13 0.97 0.87 0.78 0.89 1.01 0.97 0.86 0.76 0.74 0.75 0.80 0.90 0.97 1.02 1.09 1.06 0.97 0.97 1.00 1.05 1.04 1.05 1.06 1.07 1.13 1.18 1.23 1.28 1.34 1.41 1.40
1.32 1.23 1.11 1.08 1.09 1.02 0.96 1.01 1.07 1.13 1.22 1.17 0.99 0.90 0.82 0.87 0.94 0.90 0.79 0.69 0.72 0.72 0.74 0.80 0.87 0.94 0.97 0.96 0.96 0.99 1.01 1.04 0.99 1.00 1.05 1.10 1.08 1.13 1.13 1.18 1.27 1.37 1.39
1.11 1.04 1.00 1.02 1.01 0.97 0.94 0.96 1.03 1.11 1.18 1.16 1.03 0.91 0.79 0.81 0.88 0.87 0.76 0.71 0.70 0.67 0.67 0.73 0.81 0.85 0.90 0.93 1.00 1.03 1.01 1.05 1.07 1.02 1.06 1.13 1.07 1.07 1.07 1.09 1.20 1.25 1.25
0.99 0.88 0.79 0.81 0.88 0.90 0.93 1.00 1.10 1.15 1.16 1.07 0.91 0.77 0.67 0.63 0.73 0.75 0.77 0.78 0.76 0.75 0.75 0.73 0.76 0.81 0.84 0.91 0.99 1.04 1.05 1.07 1.10 1.04 1.03 1.11 1.10 1.11 1.15 1.12 1.14 1.25 1.25
1.01 0.86 0.73 0.70 0.73 0.76 0.86 0.98 1.06 1.05 0.98 0.91 0.82 0.72 0.67 0.63 0.68 0.70 0.76 0.75 0.72 0.71 0.67 0.68 0.71 0.77 0.81 0.86 0.92 0.98 1.01 1.01 1.05 1.08 1.07 1.11 1.13 1.11 1.14 1.14 1.12 1.22 1.31
0.92 0.73 0.58 0.54 0.56 0.60 0.72 0.88 0.93 0.87 0.78 0.75 0.74 0.71 0.70 0.71 0.69 0.71 0.73 0.72 0.69 0.67 0.63 0.67 0.71 0.75 0.82 0.82 0.81 0.87 0.92 0.92 0.92 0.98 1.07 1.09 1.12 1.14 1.15 1.18 1.18 1.21 1.30
0.80 0.65 0.51 0.44 0.46 0.53 0.67 0.83 0.83 0.74 0.69 0.70 0.70 0.71 0.71 0.70 0.69 0.70 0.71 0.72 0.71 0.70 0.67 0.67 0.67 0.66 0.69 0.75 0.74 0.70 0.71 0.70 0.70 0.79 0.91 1.01 1.06 1.14 1.14 1.16 1.19 1.17 1.26
0.68 0.57 0.46 0.40 0.43 0.56 0.73 0.83 0.75 0.67 0.65 0.66 0.63 0.67 0.71 0.73 0.73 0.72 0.72 0.75 0.74 0.75 0.73 0.69 0.67 0.64 0.59 0.60 0.62 0.60 0.58 0.51 0.51 0.60 0.72 0.85 0.91 1.01 1.06 1.07 1.15 1.19 1.21
0.64 0.60 0.53 0.47 0.51 0.63 0.75 0.78 0.71 0.67 0.69 0.66 0.64 0.66 0.71 0.74 0.73 0.71 0.72 0.73 0.72 0.69 0.63 0.59 0.58 0.58 0.57 0.54 0.49 0.45 0.41 0.39 0.41 0.49 0.58 0.70 0.81 0.89 0.96 1.01 1.06 1.15 1.15

GEFSGL_prec_meanprecacc_216.txt.gz
Total_Precipitation_Accumulation
1.10 1.12 1.24 1.40 1.50 1.55 1.68 1.66 1.58 1.54 1.57 1.51 1.47 1.48 1.46 1.39 1.48 1.67 1.80 1.99 2.11 2.17 2.14 2.17 2.16 2.24 2.27 2.13 2.20 2.32 2.49 2.65 2.35 1.92 1.99 2.13 2.09 1.88 1.71 1.56 1.45 1.40 1.37
1.06 1.16 1.22 1.32 1.40 1.43 1.47 1.55 1.62 1.58 1.63 1.60 1.54 1.52 1.40 1.38 1.48 1.61 1.76 1.93 2.07 2.18 2.28 2.35 2.15 2.20 2.32 2.24 2.23 2.25 2.34 2.58 2.50 2.37 2.34 2.40 2.32 2.07 1.86 1.61 1.31 1.18 1.25
1.16 1.17 1.13 1.20 1.19 1.24 1.31 1.38 1.51 1.56 1.60 1.64 1.65 1.58 1.52 1.56 1.65 1.72 1.78 1.92 2.05 2.13 2.22 2.21 2.15 2.26 2.17 2.20 2.26 2.23 2.21 2.26 2.38 2.36 2.27 2.34 2.27 2.05 1.87 1.61 1.38 1.35 1.24
1.01 1.02 1.06 1.09 1.13 1.23 1.33 1.36 1.40 1.39 1.46 1.49 1.49 1.56 1.60 1.65 1.70 1.70 1.70 1.74 1.82 1.90 1.89 1.80 1.73 1.79 1.86 2.00 2.00 2.00 2.06 2.13 2.23 2.19 2.18 2.25 2.26 2.28 2.12 1.82 1.65 1.50 1.36
1.06 1.04 1.09 1.15 1.15 1.19 1.22 1.22 1.24 1.32 1.34 1.50 1.53 1.62 1.68 1.65 1.56 1.61 1.62 1.54 1.72 1.69 1.56 1.50 1.51 1.60 1.63 1.70 1.63 1.70 1.85 1.93 2.02 2.12 2.20 2.36 2.39 2.50 2.34 2.05 1.91 1.77 1.53
1.05 1.15 1.24 1.23 1.13 1.16 1.17 1.15 1.19 1.31 1.41 1.50 1.56 1.67 1.69 1.54 1.58 1.62 1.64 1.62 1.68 1.64 1.56 1.50 1.39 1.40 1.39 1.42 1.46 1.51 1.63 1.76 1.93 2.10 2.18 2.27 2.33 2.29 2.24 2.11 2.00 1.83 1.57
1.11 1.13 1.27 1.34 1.24 1.29 1.32 1.31 1.31 1.36 1.46 1.55 1.68 1.74 1.70 1.72 1.62 1.50 1.53 1.52 1.58 1.63 1.64 1.63 1.38 1.22 1.32 1.30 1.43 1.40 1.36 1.42 1.52 1.68 1.80 1.93 2.11 2.21 2.29 2.21 2.19 2.07 1.81
1.14 1.20 1.40 1.55 1.44 1.45 1.45 1.47 1.50 1.54 1.59 1.71 1.76 1.68 1.65 1.67 1.59 1.35 1.29 1.21 1.32 1.44 1.53 1.58 1.57 1.47 1.44 1.46 1.51 1.50 1.43 1.41 1.49 1.50 1.54 1.73 2.05 2.31 2.36 2.32 2.33 2.23 1.96
1.24 1.35 1.56 1.75 1.79 1.74 1.69 1.77 1.81 1.81 1.84 1.90 1.95 1.90 1.79 1.76 1.57 1.26 1.15 1.12 1.26 1.34 1.39 1.39 1.38 1.30 1.31 1.24 1.27 1.34 1.35 1.32 1.31 1.32 1.34 1.46 1.71 2.06 2.25 2.29 2.37 2.27 2.05
1.41 1.41 1.52 1.72 1.79 1.77 1.76 1.90 2.04 2.06 2.04 2.07 1.97 1.83 1.74 1.72 1.63 1.33 1.16 1.13 1.28 1.36 1.45 1.44 1.39 1.32 1.28 1.14 1.10 1.18 1.18 1.18 1.24 1.25 1.22 1.21 1.31 1.60 1.92 1.93 1.99 2.10 1.88
1.37 1.39 1.49 1.71 1.99 1.94 1.95 2.01 2.13 2.18 2.20 2.21 2.11 2.00 1.87 1.82 1.78 1.46 1.30 1.24 1.33 1.39 1.34 1.35 1.32 1.29 1.09 0.99 0.98 1.04 1.08 1.08 1.19 1.24 1.25 1.27 1.32 1.41 1.55 1.63 1.70 1.77 1.75
1.43 1.46 1.55 1.78 1.88 1.94 2.05 2.10 2.22 2.31 2.31 2.27 2.27 2.13 2.05 1.97 1.72 1.45 1.26 1.25 1.34 1.44 1.44 1.40 1.36 1.22 0.98 0.87 0.78 0.75 0.79 0.79 0.86 0.99 1.06 1.09 1.14 1.19 1.30 1.46 1.64 1.70 1.69
1.40 1.40 1.49 1.63 1.70 1.83 1.92 1.86 1.91 2.01 2.02 2.05 2.09 2.05 2.05 2.14 2.00 1.57 1.27 1.20 1.27 1.38 1.52 1.59 1.39 1.21 1.07 0.93 0.86 0.78 0.70 0.67 0.76 0.86 0.92 0.93 0.98 1.06 1.23 1.45 1.64 1.84 1.78
1.36 1.30 1.40 1.59 1.70 1.77 1.83 1.80 1.86 1.91 1.95 2.01 2.03 1.98 2.00 2.14 2.13 1.81 1.48 1.29 1.20 1.18 1.22 1.25 1.17 1.11 1.00 0.89 0.81 0.72 0.64 0.67 0.75 0.78 0.85 0.93 1.03 1.20 1.29 1.31 1.40 1.62 1.79
1.41 1.35 1.41 1.52 1.62 1.76 1.81 1.84 1.84 1.84 1.80 1.81 1.83 1.79 1.79 1.91 1.91 1.68 1.48 1.33 1.21 1.17 1.18 1.23 1.21 1.20 1.10 1.00 0.93 0.88 0.86 0.88 0.84 0.85 0.92 1.00 1.06 1.14 1.23 1.30 1.37 1.42 1.47
1.50 1.45 1.40 1.38 1.44 1.52 1.59 1.55 1.47 1.42 1.40 1.36 1.37 1.29 1.28 1.44 1.43 1.19 1.06 1.08 1.07 1.04 1.05 1.13 1.21 1.25 1.20 1.13 1.08 1.02 1.03 1.00 0.96 0.97 1.01 1.06 1.10 1.13 1.20 1.34 1.46 1.47 1.37
1.59 1.45 1.34 1.27 1.26 1.28 1.37 1.45 1.48 1.36 1.27 1.18 1.13 1.01 0.93 1.14 1.22 1.08 0.94 0.89 0.86 0.86 0.91 1.00 1.05 1.13 1.17 1.08 0.99 0.93 0.93 0.95 1.00 1.04 1.04 1.07 1.13 1.18 1.24 1.33 1.45 1.52 1.44
1.53 1.43 1.27 1.19 1.17 1.14 1.19 1.27 1.32 1.37 1.33 1.16 1.00 0.89 0.80 0.91 1.03 0.98 0.88 0.77 0.75 0.76 0.81 0.90 0.97 1.03 1.09 1.06 0.98 0.97 1.00 1.05 1.04 1.05 1.06 1.08 1.13 1.18 1.24 1.29 1.35 1.42 1.41
1.46 1.36 1.23 1.20 1.19 1.09 1.00 1.04 1.09 1.15 1.24 1.19 1.01 0.91 0.83 0.88 0.95 0.92 0.80 0.70 0.73 0.73 0.74 0.81 0.88 0.95 0.98 0.97 0.96 0.99 1.01 1.04 0.99 1.00 1.06 1.11 1.08 1.13 1.14 1.19 1.28 1.38 1.40
1.23 1.16 1.12 1.14 1.15 1.09 1.02 1.02 1.07 1.14 1.20 1.17 1.05 0.92 0.80 0.82 0.89 0.89 0.77 0.72 0.71 0.69 0.68 0.74 0.81 0.86 0.90 0.93 1.00 1.03 1.01 1.05 1.08 1.03 1.06 1.13 1.07 1.07 1.08 1.09 1.20 1.26 1.26
1.07 0.98 0.91 0.91 0.96 0.96 0.97 1.03 1.13 1.18 1.18 1.09 0.93 0.78 0.69 0.64 0.75 0.76 0.78 0.80 0.77 0.76 0.76 0.74 0.77 0.82 0.84 0.91 0.99 1.04 1.05 1.07 1.10 1.04 1.03 1.11 1.10 1.11 1.15 1.13 1.15 1.26 1.26
1.08 0.94 0.82 0.79 0.81 0.82 0.90 1.01 1.09 1.08 1.01 0.94 0.84 0.74 0.70 0.65 0.70 0.73 0.78 0.77 0.74 0.73 0.68 0.69 0.72 0.78 0.82 0.86 0.92 0.99 1.01 1.01 1.05 1.08 1.07 1.11 1.13 1.11 1.15 1.14 1.12 1.23 1.32
0.95 0.76 0.63 0.59 0.61 0.65 0.76 0.91 0.96 0.89 0.80 0.77 0.76 0.73 0.73 0.73 0.72 0.74 0.76 0.74 0.71 0.68 0.64 0.68 0.72 0.76 0.82 0.83 0.82 0.87 0.92 0.93 0.92 0.98 1.08 1.09 1.12 1.14 1.15 1.18 1.18 1.22 1.30
0.84 0.68 0.54 0.48 0.50 0.57 0.70 0.86 0.86 0.76 0.71 0.72 0.72 0.73 0.72 0.72 0.71 0.72 0.74 0.75 0.74 0.71 0.68 0.69 0.69 0.67 0.70 0.76 0.75 0.71 0.72 0.70 0.71 0.79 0.91 1.01 1.06 1.15 1.15 1.16 1.20 1.18 1.27
0.73 0.62 0.51 0.45 0.47 0.60 0.77 0.86 0.77 0.69 0.67 0.68 0.65 0.68 0.72 0.74 0.74 0.74 0.74 0.77 0.76 0.77 0.75 0.71 0.69 0.66 0.61 0.61 0.63 0.61 0.59 0.51 0.51 0.61 0.73 0.86 0.92 1.02 1.08 1.09 1.17 1.21 1.23
0.70 0.65 0.58 0.54 0.58 0.69 0.80 0.82 0.75 0.71 0.73 0.69 0.67 0.69 0.73 0.76 0.75 0.73 0.74 0.75 0.74 0.72 0.66 0.63 0.61 0.61 0.59 0.56 0.51 0.47 0.42 0.40 0.42 0.50 0.60 0.72 0.83 0.91 0.98 1.03 1.08 1.16 1.17

GEFSGL_prec_meanprecacc_222.txt.gz
Total_Precipitation_Accumulation
1.10 1.13 1.26 1.42 1.51 1.56 1.69 1.67 1.61 1.58 1.61 1.55 1.51 1.52 1.49 1.42 1.50 1.69 1.82 2.02 2.15 2.21 2.19 2.23 2.23 2.32 2.35 2.22 2.30 2.41 2.59 2.75 2.45 2.00 2.06 2.20 2.14 1.93 1.76 1.59 1.47 1.43 1.40
1.07 1.16 1.23 1.34 1.42 1.45 1.49 1.58 1.65 1.62 1.68 1.64 1.58 1.55 1.42 1.40 1.50 1.62 1.77 1.94 2.09 2.20 2.31 2.39 2.19 2.25 2.38 2.32 2.30 2.33 2.42 2.68 2.59 2.45 2.40 2.47 2.38 2.13 1.90 1.65 1.34 1.22 1.29
1.16 1.18 1.15 1.22 1.21 1.26 1.34 1.42 1.54 1.60 1.63 1.68 1.68 1.60 1.54 1.58 1.66 1.73 1.80 1.94 2.06 2.14 2.24 2.23 2.17 2.30 2.22 2.25 2.32 2.30 2.28 2.33 2.46 2.43 2.32 2.40 2.33 2.11 1.92 1.66 1.42 1.40 1.28
1.01 1.03 1.07 1.11 1.15 1.25 1.35 1.39 1.44 1.42 1.48 1.51 1.51 1.59 1.62 1.67 1.71 1.71 1.71 1.75 1.83 1.91 1.90 1.81 1.75 1.81 1.89 2.03 2.04 2.05 2.12 2.20 2.29 2.25 2.22 2.30 2.30 2.33 2.16 1.86 1.69 1.55 1.39
1.08 1.06 1.10 1.16 1.16 1.20 1.24 1.25 1.27 1.34 1.36 1.52 1.56 1.64 1.70 1.68 1.59 1.63 1.63 1.55 1.73 1.70 1.57 1.51 1.52 1.62 1.64 1.72 1.65 1.74 1.90 1.99 2.07 2.16 2.23 2.40 2.41 2.52 2.37 2.09 1.95 1.82 1.56
1.06 1.16 1.25 1.24 1.14 1.18 1.19 1.17 1.22 1.33 1.42 1.52 1.58 1.69 1.74 1.59 1.63 1.66 1.67 1.64 1.70 1.66 1.59 1.52 1.41 1.41 1.40 1.44 1.48 1.53 1.66 1.79 1.97 2.14 2.21 2.29 2.36 2.32 2.27 2.15 2.04 1.87 1.60
1.12 1.14 1.28 1.35 1.25 1.30 1.33 1.32 1.33 1.38 1.49 1.57 1.71 1.78 1.76 1.79 1.69 1.56 1.58 1.56 1.61 1.65 1.67 1.66 1.40 1.22 1.32 1.31 1.44 1.41 1.38 1.44 1.54 1.71 1.83 1.96 2.15 2.24 2.32 2.24 2.22 2.09 1.84
1.15 1.21 1.41 1.56 1.46 1.47 1.47 1.49 1.52 1.57 1.62 1.75 1.79 1.71 1.68 1.71 1.63 1.39 1.32 1.24 1.35 1.46 1.54 1.60 1.58 1.48 1.45 1.46 1.52 1.51 1.44 1.43 1.51 1.51 1.56 1.75 2.08 2.36 2.40 2.35 2.36 2.26 1.99
1.25 1.36 1.58 1.77 1.81 1.78 1.72 1.80 1.84 1.85 1.87 1.93 1.97 1.92 1.80 1.76 1.57 1.27 1.15 1.13 1.27 1.35 1.40 1.40 1.38 1.30 1.31 1.24 1.27 1.35 1.36 1.33 1.32 1.33 1.35 1.48 1.73 2.09 2.28 2.32 2.40 2.31 2.09
1.43 1.45 1.56 1.75 1.83 1.81 1.80 1.95 2.08 2.10 2.07 2.09 1.98 1.85 1.75 1.72 1.64 1.33 1.16 1.13 1.28 1.36 1.46 1.44 1.40 1.32 1.28 1.14 1.11 1.18 1.18 1.19 1.24 1.25 1.23 1.22 1.32 1.62 1.93 1.94 2.01 2.14 1.93
1.41 1.44 1.53 1.76 2.05 1.98 2.00 2.06 2.16 2.20 2.22 2.23 2.14 2.02 1.89 1.83 1.79 1.47 1.30 1.24 1.33 1.39 1.34 1.35 1.33 1.29 1.09 0.99 0.98 1.04 1.09 1.08 1.19 1.24 1.26 1.28 1.34 1.43 1.57 1.65 1.72 1.80 1.78
1.49 1.51 1.59 1.82 1.92 1.97 2.09 2.14 2.25 2.34 2.33 2.29 2.29 2.15 2.08 1.99 1.73 1.46 1.27 1.25 1.34 1.45 1.44 1.40 1.36 1.22 0.98 0.87 0.78 0.75 0.79 0.79 0.86 1.00 1.06 1.10 1.15 1.20 1.31 1.47 1.65 1.72 1.71
1.44 1.44 1.53 1.66 1.73 1.86 1.94 1.89 1.94 2.05 2.05 2.08 2.12 2.08 2.09 2.17 2.03 1.59 1.29 1.21 1.27 1.38 1.52 1.59 1.39 1.21 1.07 0.93 0.86 0.78 0.70 0.67 0.77 0.87 0.93 0.94 0.98 1.07 1.24 1.46 1.66 1.85 1.80
1.38 1.34 1.44 1.63 1.73 1.80 1.86 1.84 1.89 1.95 1.99 2.05 2.06 2.01 2.02 2.16 2.16 1.83 1.51 1.31 1.21 1.18 1.22 1.25 1.17 1.11 1.00 0.89 0.81 0.72 0.64 0.68 0.75 0.78 0.85 0.93 1.03 1.20 1.30 1.31 1.42 1.63 1.81
1.44 1.39 1.45 1.55 1.65 1.79 1.84 1.87 1.89 1.89 1.86 1.85 1.86 1.82 1.82 1.93 1.93 1.71 1.51 1.36 1.23 1.18 1.18 1.23 1.22 1.21 1.11 1.01 0.93 0.88 0.87 0.88 0.85 0.85 0.92 1.00 1.06 1.14 1.24 1.30 1.38 1.43 1.49
1.53 1.48 1.44 1.41 1.48 1.56 1.63 1.59 1.53 1.49 1.47 1.41 1.42 1.33 1.32 1.47 1.46 1.22 1.09 1.11 1.09 1.05 1.06 1.14 1.21 1.25 1.20 1.13 1.08 1.02 1.03 1.00 0.96 0.97 1.01 1.06 1.10 1.13 1.20 1.34 1.47 1.48 1.38
1.62 1.48 1.37 1.30 1.30 1.32 1.42 1.51 1.54 1.43 1.33 1.23 1.18 1.06 0.98 1.18 1.26 1.12 0.98 0.92 0.87 0.87 0.92 1.00 1.05 1.13 1.17 1.08 1.00 0.94 0.93 0.95 1.00 1.04 1.04 1.07 1.13 1.18 1.24 1.33 1.45 1.53 1.45
1.57 1.47 1.31 1.24 1.22 1.19 1.24 1.33 1.38 1.42 1.38 1.20 1.05 0.95 0.85 0.96 1.07 1.03 0.92 0.81 0.78 0.78 0.82 0.91 0.98 1.03 1.10 1.07 0.98 0.98 1.01 1.05 1.05 1.05 1.06 1.08 1.13 1.18 1.24 1.29 1.36 1.42 1.42
1.51 1.42 1.30 1.26 1.25 1.14 1.06 1.09 1.13 1.18 1.27 1.22 1.06 0.99 0.91 0.95 1.02 0.97 0.85 0.73 0.76 0.75 0.76 0.82 0.89 0.96 0.99 0.98 0.98 1.00 1.01 1.04 0.99 1.00 1.06 1.11 1.09 1.15 1.16 1.20 1.29 1.38 1.40
1.28 1.21 1.17 1.18 1.18 1.13 1.09 1.09 1.15 1.22 1.28 1.25 1.13 1.02 0.92 0.93 0.98 0.95 0.82 0.75 0.74 0.71 0.70 0.75 0.83 0.88 0.92 0.95 1.01 1.05 1.02 1.06 1.08 1.04 1.07 1.14 1.09 1.10 1.11 1.11 1.22 1.27 1.27
1.11 1.02 0.95 0.96 1.01 1.01 1.02 1.09 1.19 1.26 1.28 1.18 1.01 0.88 0.80 0.74 0.82 0.82 0.83 0.83 0.80 0.79 0.79 0.77 0.80 0.85 0.87 0.93 1.01 1.05 1.06 1.08 1.11 1.06 1.06 1.14 1.13 1.15 1.18 1.15 1.17 1.27 1.28
1.13 0.98 0.86 0.83 0.88 0.91 1.00 1.10 1.16 1.14 1.07 1.01 0.90 0.81 0.76 0.71 0.75 0.77 0.81 0.81 0.78 0.76 0.72 0.72 0.74 0.80 0.84 0.89 0.94 1.00 1.02 1.02 1.06 1.10 1.10 1.14 1.16 1.14 1.17 1.16 1.14 1.24 1.33
1.00 0.81 0.67 0.62 0.66 0.73 0.87 1.04 1.08 1.01 0.90 0.85 0.82 0.78 0.78 0.79 0.76 0.77 0.78 0.76 0.74 0.71 0.67 0.72 0.76 0.80 0.86 0.86 0.85 0.90 0.95 0.95 0.94 1.01 1.11 1.12 1.15 1.17 1.18 1.20 1.19 1.23 1.31
0.88 0.73 0.59 0.53 0.54 0.61 0.76 0.94 0.95 0.86 0.82 0.83 0.80 0.78 0.77 0.76 0.75 0.76 0.78 0.79 0.77 0.74 0.71 0.72 0.73 0.70 0.73 0.79 0.78 0.75 0.77 0.75 0.75 0.83 0.94 1.04 1.08 1.16 1.16 1.18 1.21 1.19 1.28
0.77 0.68 0.56 0.52 0.56 0.68 0.84 0.92 0.84 0.76 0.74 0.75 0.72 0.76 0.80 0.81 0.80 0.79 0.78 0.82 0.84 0.85 0.79 0.74 0.72 0.69 0.64 0.65 0.67 0.65 0.63 0.55 0.54 0.63 0.75 0.88 0.94 1.04 1.09 1.10 1.19 1.22 1.25
0.74 0.70 0.65 0.62 0.67 0.78 0.87 0.89 0.81 0.78 0.82 0.77 0.73 0.74 0.79 0.84 0.84 0.82 0.81 0.80 0.78 0.77 0.70 0.67 0.66 0.66 0.64 0.60 0.56 0.52 0.47 0.44 0.45 0.52 0.62 0.74 0.85 0.93 1.00 1.05 1.10 1.19 1.20

GEFSGL_prec_meanprecacc_228.txt.gz
Total_Precipitation_Accumulation
1.14 1.15 1.26 1.43 1.52 1.57 1.71 1.69 1.62 1.60 1.63 1.57 1.52 1.55 1.52 1.45 1.52 1.71 1.83 2.03 2.16 2.21 2.19 2.24 2.24 2.33 2.36 2.25 2.34 2.46 2.68 2.85 2.53 2.05 2.11 2.25 2.20 1.99 1.81 1.64 1.51 1.47 1.43
1.11 1.18 1.24 1.34 1.42 1.47 1.52 1.60 1.67 1.64 1.69 1.66 1.61 1.58 1.45 1.42 1.51 1.64 1.78 1.95 2.10 2.21 2.31 2.39 2.19 2.26 2.39 2.33 2.33 2.36 2.46 2.73 2.64 2.51 2.46 2.51 2.42 2.17 1.94 1.68 1.39 1.27 1.32
1.19 1.19 1.16 1.23 1.22 1.27 1.35 1.44 1.57 1.62 1.66 1.70 1.71 1.64 1.57 1.59 1.68 1.74 1.81 1.95 2.08 2.15 2.24 2.23 2.18 2.31 2.23 2.26 2.33 2.31 2.30 2.37 2.50 2.47 2.36 2.45 2.37 2.15 1.97 1.70 1.47 1.44 1.31
1.05 1.06 1.09 1.12 1.17 1.27 1.36 1.41 1.47 1.44 1.51 1.54 1.54 1.62 1.64 1.69 1.72 1.73 1.73 1.78 1.86 1.93 1.91 1.82 1.75 1.82 1.89 2.04 2.05 2.06 2.14 2.23 2.32 2.27 2.25 2.34 2.36 2.39 2.22 1.91 1.73 1.57 1.41
1.11 1.08 1.12 1.19 1.18 1.22 1.25 1.27 1.30 1.36 1.38 1.54 1.59 1.67 1.72 1.69 1.60 1.65 1.66 1.58 1.76 1.73 1.59 1.53 1.54 1.63 1.65 1.73 1.66 1.75 1.92 2.00 2.08 2.17 2.25 2.42 2.44 2.56 2.41 2.12 1.98 1.84 1.57
1.08 1.18 1.27 1.26 1.16 1.19 1.21 1.20 1.25 1.36 1.45 1.55 1.61 1.71 1.75 1.60 1.64 1.68 1.69 1.67 1.72 1.68 1.63 1.56 1.44 1.43 1.41 1.45 1.49 1.53 1.67 1.81 1.98 2.15 2.22 2.31 2.38 2.35 2.30 2.18 2.06 1.89 1.62
1.15 1.17 1.31 1.38 1.29 1.33 1.36 1.35 1.36 1.40 1.53 1.60 1.73 1.79 1.77 1.79 1.70 1.57 1.59 1.57 1.63 1.67 1.68 1.67 1.41 1.24 1.34 1.32 1.44 1.42 1.39 1.45 1.55 1.72 1.83 1.97 2.16 2.25 2.34 2.26 2.24 2.11 1.85
1.18 1.24 1.46 1.61 1.51 1.52 1.51 1.53 1.56 1.61 1.66 1.79 1.82 1.73 1.69 1.71 1.63 1.39 1.33 1.25 1.37 1.48 1.56 1.62 1.61 1.50 1.46 1.47 1.52 1.52 1.45 1.43 1.51 1.51 1.56 1.76 2.09 2.37 2.41 2.36 2.38 2.28 2.00
1.30 1.42 1.64 1.84 1.90 1.85 1.77 1.85 1.90 1.90 1.91 1.97 2.00 1.95 1.82 1.78 1.58 1.28 1.17 1.14 1.29 1.37 1.43 1.43 1.42 1.33 1.33 1.25 1.28 1.35 1.37 1.33 1.32 1.33 1.36 1.48 1.74 2.10 2.29 2.32 2.41 2.32 2.11
1.48 1.51 1.63 1.83 1.91 1.88 1.86 2.01 2.15 2.15 2.11 2.13 2.02 1.89 1.78 1.75 1.67 1.35 1.18 1.15 1.29 1.38 1.47 1.46 1.42 1.35 1.30 1.16 1.12 1.19 1.19 1.19 1.25 1.26 1.24 1.23 1.33 1.63 1.94 1.95 2.02 2.15 1.95
1.47 1.49 1.58 1.81 2.11 2.04 2.05 2.11 2.23 2.27 2.29 2.31 2.20 2.08 1.93 1.88 1.83 1.50 1.32 1.25 1.34 1.40 1.35 1.36 1.34 1.30 1.11 1.01 0.99 1.05 1.09 1.08 1.19 1.25 1.26 1.29 1.34 1.43 1.57 1.65 1.73 1.81 1.78
1.55 1.55 1.63 1.87 1.96 2.00 2.12 2.17 2.30 2.39 2.39 2.34 2.34 2.19 2.13 2.05 1.79 1.52 1.33 1.30 1.37 1.46 1.46 1.41 1.37 1.23 0.99 0.88 0.78 0.76 0.80 0.80 0.86 1.00 1.07 1.10 1.15 1.21 1.31 1.47 1.65 1.72 1.71
1.48 1.47 1.56 1.69 1.76 1.89 1.97 1.93 1.99 2.11 2.12 2.15 2.17 2.12 2.14 2.22 2.07 1.64 1.34 1.26 1.31 1.40 1.54 1.60 1.40 1.22 1.07 0.93 0.87 0.78 0.71 0.68 0.78 0.87 0.93 0.94 0.98 1.07 1.24 1.46 1.66 1.86 1.80
1.42 1.38 1.47 1.67 1.77 1.84 1.89 1.88 1.94 2.01 2.06 2.12 2.13 2.06 2.07 2.21 2.19 1.86 1.54 1.35 1.25 1.21 1.25 1.27 1.19 1.12 1.01 0.90 0.81 0.72 0.64 0.68 0.75 0.78 0.85 0.93 1.03 1.21 1.30 1.32 1.42 1.63 1.81
1.49 1.44 1.51 1.61 1.72 1.85 1.90 1.93 1.95 1.96 1.92 1.91 1.92 1.87 1.87 1.97 1.96 1.75 1.54 1.39 1.27 1.22 1.21 1.25 1.23 1.22 1.11 1.01 0.94 0.88 0.87 0.88 0.85 0.85 0.92 1.01 1.06 1.14 1.24 1.31 1.38 1.43 1.49
1.58 1.53 1.49 1.48 1.56 1.63 1.69 1.65 1.58 1.53 1.51 1.46 1.46 1.38 1.36 1.50 1.49 1.25 1.12 1.14 1.14 1.10 1.10 1.16 1.23 1.26 1.21 1.14 1.09 1.03 1.03 1.01 0.96 0.97 1.01 1.06 1.11 1.14 1.20 1.34 1.47 1.48 1.39
1.65 1.52 1.41 1.34 1.34 1.36 1.46 1.55 1.58 1.47 1.37 1.27 1.21 1.10 1.02 1.22 1.30 1.15 1.02 0.97 0.92 0.91 0.95 1.02 1.07 1.15 1.19 1.09 1.00 0.94 0.94 0.95 1.01 1.04 1.04 1.07 1.14 1.19 1.25 1.34 1.46 1.54 1.46
1.61 1.51 1.35 1.27 1.25 1.23 1.29 1.38 1.43 1.46 1.42 1.24 1.08 0.98 0.89 1.00 1.11 1.07 0.96 0.86 0.84 0.83 0.86 0.94 1.01 1.06 1.12 1.09 1.00 1.00 1.02 1.06 1.05 1.05 1.07 1.09 1.14 1.20 1.25 1.31 1.37 1.43 1.43
1.58 1.48 1.34 1.29 1.28 1.18 1.10 1.13 1.18 1.22 1.30 1.25 1.09 1.02 0.95 0.99 1.06 1.01 0.89 0.78 0.81 0.81 0.82 0.89 0.96 1.03 1.05 1.03 1.02 1.04 1.04 1.07 1.02 1.03 1.08 1.13 1.11 1.17 1.18 1.23 1.31 1.40 1.42
1.33 1.28 1.23 1.23 1.21 1.16 1.11 1.12 1.18 1.25 1.30 1.27 1.15 1.04 0.95 0.96 1.01 1.00 0.89 0.83 0.81 0.78 0.77 0.84 0.93 0.98 1.02 1.04 1.11 1.14 1.10 1.12 1.13 1.08 1.11 1.17 1.11 1.12 1.12 1.13 1.24 1.29 1.29
1.14 1.08 1.03 1.02 1.05 1.04 1.05 1.12 1.22 1.29 1.30 1.20 1.03 0.90 0.83 0.77 0.86 0.87 0.90 0.93 0.90 0.89 0.90 0.89 0.93 0.99 1.01 1.08 1.14 1.17 1.17 1.16 1.16 1.10 1.09 1.16 1.15 1.16 1.20 1.16 1.18 1.28 1.29
1.18 1.03 0.92 0.90 0.94 0.96 1.03 1.13 1.20 1.17 1.10 1.03 0.93 0.84 0.80 0.74 0.78 0.82 0.87 0.88 0.86 0.86 0.82 0.83 0.85 0.91 0.94 0.99 1.04 1.09 1.10 1.09 1.11 1.13 1.13 1.16 1.18 1.16 1.19 1.17 1.16 1.25 1.34
1.07 0.87 0.72 0.67 0.71 0.80 0.94 1.10 1.14 1.05 0.94 0.89 0.86 0.83 0.83 0.84 0.82 0.83 0.84 0.82 0.80 0.77 0.74 0.77 0.81 0.86 0.92 0.92 0.90 0.95 1.00 1.00 0.99 1.05 1.14 1.16 1.19 1.21 1.22 1.24 1.22 1.25 1.33
0.94 0.77 0.63 0.57 0.58 0.66 0.82 1.00 1.01 0.92 0.88 0.90 0.89 0.89 0.87 0.86 0.83 0.83 0.85 0.86 0.84 0.81 0.78 0.81 0.81 0.77 0.79 0.84 0.82 0.78 0.79 0.78 0.78 0.87 0.99 1.10 1.14 1.23 1.22 1.23 1.26 1.24 1.33
0.80 0.71 0.60 0.57 0.62 0.73 0.90 0.99 0.91 0.81 0.78 0.80 0.80 0.86 0.90 0.90 0.88 0.86 0.86 0.91 0.92 0.93 0.87 0.79 0.76 0.73 0.68 0.68 0.70 0.67 0.66 0.58 0.58 0.67 0.79 0.92 0.99 1.09 1.14 1.15 1.23 1.27 1.29
0.77 0.73 0.68 0.66 0.73 0.86 0.94 0.94 0.87 0.82 0.86 0.82 0.78 0.82 0.88 0.93 0.94 0.95 0.92 0.88 0.85 0.82 0.75 0.71 0.69 0.69 0.67 0.63 0.59 0.55 0.50 0.46 0.48 0.55 0.64 0.77 0.88 0.96 1.03 1.08 1.13 1.22 1.23

GEFSGL_prec_meanprecacc_234.txt.gz
Total_Precipitation_Accumulation
1.15 1.16 1.27 1.44 1.53 1.58 1.73 1.71 1.64 1.61 1.65 1.60 1.55 1.58 1.56 1.46 1.53 1.72 1.84 2.04 2.17 2.23 2.22 2.26 2.26 2.36 2.39 2.28 2.37 2.50 2.72 2.89 2.57 2.11 2.17 2.32 2.28 2.06 1.87 1.69 1.58 1.56 1.54
1.14 1.21 1.27 1.37 1.44 1.48 1.53 1.62 1.69 1.67 1.71 1.68 1.63 1.59 1.47 1.44 1.53 1.65 1.79 1.96 2.11 2.23 2.34 2.42 2.22 2.29 2.42 2.35 2.35 2.38 2.49 2.77 2.67 2.54 2.50 2.57 2.49 2.23 2.00 1.74 1.46 1.33 1.38
1.26 1.26 1.21 1.27 1.25 1.29 1.37 1.45 1.59 1.64 1.68 1.72 1.73 1.66 1.60 1.63 1.71 1.76 1.82 1.96 2.09 2.17 2.26 2.25 2.20 2.33 2.24 2.27 2.35 2.33 2.33 2.40 2.52 2.50 2.39 2.48 2.41 2.21 2.03 1.77 1.52 1.48 1.35
1.16 1.18 1.18 1.16 1.20 1.30 1.39 1.43 1.48 1.46 1.53 1.56 1.56 1.65 1.68 1.72 1.75 1.74 1.74 1.79 1.87 1.94 1.93 1.84 1.78 1.85 1.93 2.07 2.07 2.08 2.16 2.24 2.33 2.28 2.26 2.35 2.37 2.41 2.25 1.95 1.78 1.61 1.44
1.17 1.13 1.16 1.22 1.22 1.26 1.29 1.30 1.33 1.40 1.42 1.59 1.62 1.69 1.74 1.72 1.62 1.67 1.67 1.59 1.76 1.73 1.60 1.55 1.56 1.66 1.69 1.77 1.70 1.78 1.94 2.02 2.08 2.17 2.26 2.43 2.45 2.57 2.44 2.16 2.02 1.86 1.59
1.15 1.25 1.31 1.30 1.21 1.25 1.25 1.24 1.29 1.40 1.49 1.58 1.63 1.73 1.77 1.63 1.66 1.69 1.69 1.68 1.72 1.69 1.63 1.56 1.45 1.45 1.43 1.47 1.51 1.56 1.69 1.82 1.98 2.15 2.22 2.31 2.38 2.36 2.32 2.20 2.09 1.91 1.63
1.18 1.20 1.35 1.43 1.34 1.39 1.41 1.40 1.41 1.45 1.57 1.64 1.77 1.82 1.79 1.81 1.71 1.58 1.60 1.58 1.64 1.67 1.69 1.68 1.41 1.24 1.34 1.33 1.45 1.43 1.40 1.46 1.56 1.72 1.84 1.98 2.17 2.26 2.35 2.27 2.25 2.13 1.86
1.20 1.28 1.50 1.65 1.56 1.57 1.57 1.60 1.65 1.70 1.74 1.85 1.87 1.76 1.70 1.73 1.65 1.41 1.34 1.26 1.37 1.49 1.56 1.63 1.61 1.51 1.47 1.48 1.53 1.53 1.46 1.44 1.52 1.52 1.57 1.78 2.10 2.38 2.42 2.38 2.40 2.28 2.01
1.32 1.45 1.67 1.88 1.93 1.89 1.83 1.91 1.96 1.96 1.96 2.02 2.04 1.98 1.85 1.81 1.62 1.31 1.20 1.15 1.30 1.38 1.44 1.44 1.43 1.34 1.35 1.27 1.30 1.37 1.39 1.35 1.34 1.35 1.37 1.50 1.76 2.12 2.31 2.34 2.42 2.33 2.11
1.50 1.53 1.66 1.86 1.94 1.92 1.90 2.06 2.19 2.19 2.14 2.17 2.07 1.93 1.83 1.81 1.74 1.43 1.25 1.18 1.31 1.39 1.48 1.47 1.44 1.37 1.32 1.18 1.14 1.21 1.21 1.21 1.26 1.27 1.26 1.25 1.35 1.65 1.96 1.96 2.03 2.16 1.96
1.49 1.51 1.60 1.84 2.13 2.07 2.08 2.15 2.26 2.30 2.32 2.34 2.25 2.13 1.99 1.94 1.90 1.58 1.39 1.30 1.38 1.43 1.37 1.38 1.36 1.34 1.14 1.04 1.02 1.07 1.12 1.10 1.20 1.26 1.27 1.30 1.35 1.45 1.59 1.66 1.74 1.81 1.79
1.57 1.57 1.66 1.89 2.00 2.04 2.17 2.22 2.33 2.43 2.42 2.38 2.37 2.23 2.18 2.11 1.85 1.58 1.39 1.36 1.42 1.50 1.48 1.44 1.40 1.26 1.02 0.92 0.82 0.79 0.84 0.82 0.87 1.01 1.07 1.11 1.16 1.21 1.32 1.49 1.66 1.73 1.72
1.51 1.49 1.58 1.73 1.81 1.95 2.04 1.97 2.03 2.15 2.14 2.18 2.20 2.16 2.19 2.28 2.13 1.69 1.39 1.30 1.34 1.43 1.57 1.63 1.43 1.24 1.09 0.96 0.89 0.80 0.73 0.69 0.78 0.87 0.93 0.94 0.99 1.08 1.25 1.47 1.67 1.86 1.81
1.45 1.41 1.52 1.72 1.82 1.89 1.94 1.92 1.98 2.05 2.10 2.17 2.19 2.12 2.12 2.24 2.22 1.90 1.58 1.39 1.29 1.25 1.28 1.29 1.21 1.14 1.03 0.91 0.83 0.73 0.65 0.68 0.76 0.79 0.86 0.94 1.04 1.21 1.30 1.32 1.42 1.64 1.81
1.54 1.50 1.58 1.69 1.78 1.90 1.94 1.99 2.01 2.02 1.99 1.99 1.98 1.91 1.90 2.00 2.00 1.79 1.58 1.43 1.30 1.24 1.23 1.26 1.24 1.23 1.13 1.03 0.95 0.90 0.89 0.90 0.86 0.86 0.93 1.01 1.07 1.15 1.25 1.32 1.40 1.45 1.50
1.65 1.60 1.56 1.54 1.62 1.69 1.74 1.71 1.65 1.60 1.58 1.52 1.50 1.41 1.39 1.54 1.53 1.28 1.15 1.17 1.17 1.13 1.11 1.17 1.23 1.27 1.22 1.15 1.11 1.05 1.05 1.03 0.98 0.99 1.02 1.07 1.12 1.15 1.22 1.36 1.49 1.50 1.40
1.70 1.57 1.47 1.40 1.39 1.41 1.51 1.59 1.63 1.53 1.43 1.32 1.26 1.14 1.06 1.26 1.32 1.17 1.04 0.99 0.94 0.92 0.96 1.03 1.08 1.16 1.20 1.11 1.03 0.97 0.96 0.98 1.04 1.07 1.07 1.09 1.16 1.21 1.26 1.36 1.48 1.55 1.47
1.66 1.55 1.39 1.31 1.30 1.27 1.33 1.42 1.48 1.51 1.47 1.29 1.13 1.02 0.93 1.02 1.14 1.09 0.98 0.87 0.84 0.84 0.87 0.97 1.04 1.08 1.15 1.12 1.04 1.03 1.06 1.11 1.10 1.10 1.11 1.12 1.18 1.23 1.28 1.34 1.40 1.46 1.46
1.61 1.51 1.38 1.33 1.32 1.21 1.13 1.17 1.22 1.26 1.34 1.28 1.12 1.05 0.98 1.01 1.08 1.03 0.90 0.79 0.82 0.82 0.84 0.90 0.97 1.04 1.07 1.06 1.06 1.09 1.11 1.14 1.10 1.12 1.17 1.22 1.20 1.26 1.26 1.30 1.38 1.46 1.48
1.34 1.30 1.25 1.25 1.24 1.18 1.14 1.15 1.22 1.29 1.35 1.31 1.18 1.07 0.98 0.98 1.03 1.01 0.90 0.83 0.82 0.79 0.78 0.85 0.94 0.99 1.03 1.06 1.14 1.20 1.18 1.21 1.23 1.19 1.22 1.28 1.23 1.24 1.23 1.23 1.32 1.37 1.36
1.15 1.09 1.04 1.04 1.06 1.06 1.07 1.15 1.26 1.33 1.35 1.25 1.08 0.95 0.87 0.79 0.87 0.88 0.92 0.95 0.92 0.91 0.92 0.91 0.95 1.02 1.05 1.12 1.19 1.23 1.24 1.25 1.27 1.23 1.23 1.30 1.28 1.29 1.32 1.27 1.27 1.35 1.33
1.20 1.06 0.95 0.93 0.97 0.99 1.06 1.16 1.23 1.21 1.14 1.07 0.98 0.90 0.86 0.78 0.81 0.84 0.89 0.90 0.89 0.88 0.85 0.86 0.88 0.95 0.98 1.03 1.09 1.16 1.18 1.17 1.21 1.25 1.25 1.27 1.27 1.23 1.25 1.24 1.21 1.30 1.38
1.09 0.90 0.76 0.72 0.76 0.86 1.00 1.16 1.19 1.10 0.99 0.93 0.91 0.87 0.87 0.89 0.86 0.86 0.88 0.86 0.83 0.81 0.78 0.82 0.85 0.89 0.95 0.96 0.94 0.99 1.04 1.04 1.03 1.10 1.20 1.21 1.23 1.25 1.26 1.27 1.27 1.29 1.37
1.02 0.84 0.70 0.64 0.66 0.75 0.91 1.10 1.10 0.99 0.93 0.94 0.93 0.92 0.90 0.90 0.88 0.88 0.90 0.91 0.88 0.85 0.82 0.85 0.85 0.81 0.84 0.88 0.86 0.82 0.83 0.82 0.83 0.91 1.03 1.13 1.18 1.26 1.25 1.26 1.29 1.27 1.36
0.88 0.82 0.71 0.69 0.73 0.85 1.01 1.09 1.01 0.91 0.85 0.84 0.83 0.88 0.93 0.94 0.92 0.91 0.90 0.95 0.98 0.99 0.92 0.85 0.81 0.77 0.72 0.73 0.75 0.72 0.71 0.64 0.63 0.71 0.82 0.95 1.01 1.11 1.16 1.17 1.26 1.30 1.33
0.81 0.79 0.75 0.73 0.81 0.95 1.03 1.02 0.92 0.87 0.92 0.87 0.82 0.85 0.91 0.97 1.00 1.01 0.99 0.95 0.92 0.88 0.80 0.76 0.74 0.74 0.71 0.68 0.63 0.59 0.54 0.51 0.51 0.58 0.67 0.79 0.90 0.98 1.06 1.11 1.15 1.24 1.26

GEFSGL_prec_meanprecacc_240.txt.gz
Total_Precipitation_Accumulation
1.15 1.17 1.28 1.44 1.54 1.60 1.75 1.73 1.67 1.65 1.69 1.64 1.58 1.62 1.60 1.51 1.58 1.77 1.88 2.07 2.20 2.26 2.24 2.28 2.28 2.39 2.43 2.33 2.43 2.56 2.77 2.94 2.62 2.14 2.20 2.34 2.30 2.09 1.91 1.74 1.62 1.59 1.58
1.15 1.22 1.28 1.38 1.45 1.50 1.56 1.64 1.71 1.69 1.74 1.71 1.66 1.63 1.52 1.50 1.58 1.69 1.83 2.00 2.14 2.25 2.36 2.44 2.24 2.32 2.44 2.38 2.39 2.42 2.53 2.80 2.71 2.56 2.52 2.59 2.51 2.25 2.03 1.77 1.48 1.35 1.41
1.27 1.27 1.23 1.29 1.27 1.33 1.42 1.48 1.60 1.66 1.70 1.75 1.77 1.69 1.64 1.67 1.74 1.79 1.85 1.99 2.11 2.18 2.29 2.28 2.22 2.35 2.27 2.31 2.38 2.37 2.37 2.44 2.56 2.52 2.41 2.49 2.43 2.23 2.04 1.79 1.55 1.52 1.38
1.16 1.20 1.23 1.23 1.26 1.36 1.44 1.47 1.52 1.49 1.55 1.59 1.60 1.68 1.72 1.76 1.80 1.79 1.78 1.81 1.88 1.95 1.94 1.85 1.79 1.85 1.94 2.10 2.11 2.12 2.20 2.27 2.36 2.31 2.28 2.37 2.39 2.42 2.26 1.97 1.81 1.64 1.47
1.18 1.15 1.20 1.27 1.29 1.33 1.34 1.34 1.37 1.43 1.45 1.62 1.65 1.72 1.78 1.75 1.66 1.70 1.69 1.60 1.77 1.74 1.61 1.56 1.57 1.66 1.69 1.77 1.71 1.80 1.98 2.05 2.12 2.21 2.28 2.44 2.47 2.59 2.45 2.17 2.03 1.88 1.60
1.16 1.25 1.32 1.31 1.24 1.29 1.30 1.28 1.31 1.42 1.52 1.61 1.66 1.77 1.81 1.67 1.70 1.72 1.72 1.69 1.74 1.70 1.64 1.57 1.45 1.45 1.44 1.48 1.51 1.57 1.71 1.84 2.01 2.18 2.25 2.34 2.41 2.38 2.34 2.21 2.10 1.93 1.65
1.18 1.21 1.36 1.44 1.35 1.40 1.43 1.43 1.44 1.47 1.59 1.66 1.79 1.85 1.81 1.85 1.75 1.60 1.62 1.60 1.65 1.69 1.71 1.69 1.42 1.25 1.35 1.34 1.46 1.44 1.41 1.47 1.58 1.75 1.87 2.00 2.20 2.28 2.37 2.29 2.28 2.15 1.88
1.21 1.29 1.52 1.67 1.57 1.58 1.59 1.62 1.67 1.73 1.76 1.87 1.89 1.78 1.72 1.76 1.69 1.43 1.35 1.27 1.39 1.50 1.58 1.64 1.62 1.52 1.48 1.49 1.55 1.55 1.48 1.45 1.54 1.54 1.60 1.81 2.14 2.40 2.44 2.40 2.42 2.30 2.01
1.33 1.47 1.70 1.90 1.95 1.92 1.85 1.94 2.01 2.00 1.98 2.03 2.06 2.00 1.87 1.84 1.67 1.36 1.23 1.17 1.31 1.39 1.45 1.45 1.44 1.35 1.36 1.29 1.32 1.39 1.41 1.37 1.35 1.36 1.39 1.52 1.79 2.15 2.33 2.36 2.44 2.34 2.12
1.53 1.56 1.71 1.90 1.97 1.95 1.95 2.14 2.27 2.23 2.16 2.19 2.07 1.94 1.85 1.83 1.77 1.46 1.28 1.20 1.33 1.41 1.50 1.48 1.45 1.38 1.35 1.21 1.16 1.24 1.23 1.23 1.28 1.29 1.28 1.27 1.38 1.67 1.99 1.98 2.05 2.17 1.97
1.53 1.57 1.69 1.90 2.18 2.13 2.15 2.24 2.32 2.33 2.34 2.35 2.25 2.14 1.99 1.95 1.92 1.60 1.41 1.31 1.40 1.45 1.39 1.39 1.38 1.36 1.17 1.08 1.05 1.09 1.13 1.12 1.23 1.28 1.29 1.31 1.37 1.46 1.61 1.68 1.76 1.84 1.82
1.61 1.60 1.69 1.94 2.05 2.10 2.23 2.27 2.36 2.45 2.43 2.39 2.38 2.24 2.19 2.12 1.87 1.61 1.42 1.38 1.44 1.51 1.49 1.45 1.42 1.29 1.05 0.95 0.85 0.82 0.86 0.84 0.89 1.02 1.08 1.12 1.17 1.23 1.35 1.51 1.68 1.75 1.75
1.55 1.52 1.61 1.76 1.86 2.00 2.09 2.02 2.07 2.18 2.17 2.20 2.22 2.17 2.21 2.30 2.16 1.73 1.42 1.32 1.36 1.45 1.58 1.64 1.45 1.27 1.12 0.98 0.91 0.83 0.76 0.72 0.81 0.90 0.95 0.96 1.00 1.09 1.27 1.49 1.69 1.88 1.82
1.48 1.43 1.54 1.75 1.86 1.93 1.99 1.97 2.02 2.08 2.13 2.19 2.21 2.14 2.14 2.27 2.26 1.94 1.60 1.40 1.30 1.27 1.29 1.30 1.22 1.15 1.04 0.92 0.84 0.76 0.68 0.71 0.78 0.81 0.88 0.95 1.05 1.22 1.32 1.34 1.44 1.66 1.83
1.58 1.53 1.61 1.73 1.82 1.96 2.02 2.05 2.05 2.05 2.02 2.02 2.01 1.95 1.94 2.04 2.05 1.83 1.60 1.45 1.32 1.27 1.25 1.27 1.24 1.23 1.13 1.04 0.97 0.92 0.91 0.93 0.89 0.89 0.96 1.04 1.09 1.17 1.27 1.34 1.42 1.47 1.52
1.69 1.65 1.61 1.59 1.67 1.74 1.79 1.74 1.68 1.63 1.61 1.55 1.53 1.44 1.42 1.58 1.57 1.32 1.18 1.20 1.19 1.14 1.12 1.17 1.24 1.28 1.23 1.16 1.11 1.06 1.07 1.06 1.02 1.03 1.07 1.12 1.16 1.18 1.25 1.39 1.51 1.53 1.43
1.71 1.60 1.51 1.45 1.44 1.45 1.54 1.62 1.65 1.55 1.46 1.35 1.28 1.18 1.10 1.30 1.36 1.20 1.07 1.01 0.95 0.93 0.96 1.04 1.08 1.17 1.21 1.12 1.03 0.98 0.98 1.01 1.07 1.10 1.10 1.13 1.20 1.25 1.30 1.39 1.51 1.59 1.51
1.67 1.57 1.41 1.33 1.32 1.29 1.35 1.44 1.50 1.53 1.49 1.31 1.15 1.05 0.96 1.06 1.17 1.12 1.00 0.89 0.86 0.86 0.89 0.98 1.05 1.09 1.16 1.12 1.04 1.04 1.08 1.13 1.12 1.12 1.14 1.16 1.22 1.28 1.32 1.38 1.44 1.51 1.51
1.63 1.53 1.40 1.36 1.35 1.25 1.17 1.20 1.25 1.29 1.36 1.31 1.15 1.07 1.00 1.03 1.11 1.07 0.93 0.80 0.84 0.84 0.86 0.92 0.99 1.05 1.08 1.07 1.07 1.10 1.12 1.16 1.12 1.14 1.20 1.25 1.25 1.32 1.32 1.38 1.46 1.56 1.57
1.38 1.34 1.29 1.29 1.28 1.22 1.17 1.19 1.26 1.33 1.38 1.34 1.21 1.09 1.00 1.00 1.04 1.03 0.92 0.86 0.85 0.81 0.80 0.87 0.96 1.01 1.05 1.08 1.16 1.22 1.21 1.24 1.26 1.22 1.25 1.32 1.28 1.29 1.30 1.31 1.41 1.47 1.47
1.20 1.15 1.10 1.09 1.11 1.10 1.10 1.17 1.30 1.37 1.39 1.29 1.11 0.99 0.90 0.82 0.90 0.91 0.94 0.97 0.95 0.95 0.95 0.94 0.98 1.04 1.07 1.15 1.22 1.27 1.27 1.29 1.31 1.27 1.27 1.34 1.34 1.36 1.38 1.33 1.35 1.45 1.44
1.27 1.12 0.99 0.96 1.00 1.02 1.08 1.18 1.25 1.24 1.17 1.11 1.01 0.93 0.89 0.81 0.83 0.86 0.92 0.93 0.93 0.93 0.89 0.90 0.92 0.98 1.02 1.07 1.13 1.19 1.21 1.21 1.24 1.29 1.29 1.32 1.33 1.30 1.33 1.31 1.30 1.39 1.48
1.13 0.93 0.78 0.73 0.77 0.88 1.03 1.19 1.22 1.14 1.03 0.98 0.96 0.92 0.92 0.93 0.90 0.90 0.92 0.90 0.88 0.85 0.82 0.86 0.88 0.92 0.98 0.99 0.97 1.02 1.06 1.07 1.06 1.13 1.24 1.25 1.29 1.32 1.33 1.36 1.35 1.38 1.46
1.04 0.86 0.71 0.65 0.68 0.78 0.95 1.14 1.15 1.04 0.99 1.01 1.01 1.00 0.98 0.96 0.94 0.94 0.96 0.96 0.93 0.89 0.85 0.88 0.88 0.84 0.86 0.91 0.89 0.85 0.86 0.85 0.86 0.95 1.07 1.18 1.23 1.31 1.31 1.33 1.37 1.35 1.43
0.90 0.83 0.73 0.70 0.75 0.88 1.05 1.14 1.07 0.99 0.96 0.95 0.95 1.02 1.06 1.05 1.01 0.98 0.97 1.01 1.03 1.03 0.97 0.91 0.87 0.81 0.76 0.76 0.78 0.75 0.75 0.68 0.67 0.75 0.86 1.00 1.06 1.16 1.22 1.24 1.33 1.36 1.38
0.83 0.81 0.76 0.74 0.83 0.98 1.07 1.06 0.97 0.93 0.98 0.95 0.91 0.95 1.02 1.07 1.09 1.11 1.09 1.03 0.98 0.93 0.86 0.82 0.79 0.78 0.75 0.71 0.66 0.62 0.58 0.54 0.56 0.64 0.72 0.83 0.94 1.03 1.12 1.17 1.21 1.29 1.29

GEFSGL_prec_meanprecacc_246.txt.gz
Total_Precipitation_Accumulation
1.17 1.20 1.31 1.47 1.56 1.62 1.78 1.77 1.71 1.69 1.72 1.68 1.63 1.66 1.65 1.56 1.63 1.81 1.92 2.10 2.23 2.30 2.27 2.31 2.30 2.42 2.47 2.37 2.46 2.60 2.83 3.02 2.70 2.19 2.25 2.39 2.33 2.11 1.93 1.76 1.64 1.61 1.59
1.16 1.24 1.30 1.40 1.48 1.53 1.59 1.67 1.74 1.72 1.78 1.75 1.71 1.68 1.56 1.55 1.63 1.73 1.86 2.03 2.17 2.28 2.39 2.47 2.27 2.35 2.49 2.43 2.43 2.47 2.59 2.87 2.77 2.62 2.56 2.62 2.53 2.27 2.05 1.79 1.50 1.36 1.42
1.28 1.28 1.24 1.31 1.29 1.35 1.44 1.51 1.64 1.69 1.73 1.78 1.80 1.73 1.68 1.71 1.78 1.83 1.88 2.02 2.14 2.21 2.31 2.31 2.26 2.40 2.31 2.36 2.44 2.42 2.42 2.48 2.61 2.59 2.47 2.52 2.45 2.24 2.06 1.81 1.57 1.53 1.39
1.18 1.21 1.24 1.24 1.28 1.38 1.46 1.51 1.56 1.52 1.59 1.63 1.63 1.71 1.75 1.79 1.82 1.82 1.81 1.84 1.91 1.98 1.98 1.88 1.82 1.89 1.97 2.16 2.16 2.18 2.26 2.32 2.41 2.36 2.33 2.40 2.40 2.43 2.27 1.98 1.83 1.66 1.48
1.18 1.15 1.21 1.29 1.31 1.36 1.38 1.40 1.42 1.47 1.50 1.66 1.68 1.77 1.83 1.79 1.70 1.74 1.72 1.65 1.82 1.77 1.64 1.59 1.60 1.69 1.73 1.82 1.75 1.85 2.03 2.11 2.16 2.24 2.31 2.47 2.48 2.60 2.47 2.19 2.05 1.90 1.63
1.17 1.26 1.34 1.34 1.27 1.34 1.39 1.39 1.38 1.48 1.57 1.66 1.71 1.83 1.86 1.70 1.74 1.75 1.75 1.73 1.79 1.74 1.69 1.61 1.48 1.48 1.47 1.51 1.52 1.58 1.73 1.87 2.05 2.22 2.28 2.38 2.44 2.40 2.36 2.24 2.13 1.96 1.68
1.19 1.22 1.40 1.50 1.42 1.50 1.55 1.54 1.50 1.52 1.65 1.73 1.86 1.91 1.86 1.90 1.79 1.62 1.64 1.63 1.69 1.72 1.75 1.73 1.45 1.28 1.40 1.36 1.49 1.46 1.43 1.48 1.59 1.77 1.90 2.04 2.24 2.33 2.41 2.33 2.33 2.20 1.90
1.22 1.32 1.58 1.74 1.65 1.66 1.67 1.70 1.73 1.78 1.81 1.92 1.95 1.85 1.79 1.81 1.74 1.45 1.36 1.28 1.40 1.51 1.60 1.66 1.65 1.56 1.53 1.53 1.59 1.59 1.51 1.48 1.56 1.56 1.61 1.83 2.17 2.45 2.50 2.45 2.48 2.35 2.05
1.36 1.50 1.74 1.97 2.11 2.06 1.92 1.99 2.06 2.04 2.03 2.09 2.11 2.05 1.93 1.90 1.73 1.39 1.25 1.18 1.32 1.40 1.46 1.47 1.47 1.39 1.43 1.34 1.36 1.44 1.45 1.39 1.37 1.38 1.40 1.54 1.81 2.17 2.37 2.41 2.49 2.39 2.16
1.55 1.59 1.74 1.97 2.09 2.05 2.03 2.20 2.32 2.27 2.21 2.23 2.12 1.99 1.89 1.88 1.82 1.50 1.31 1.22 1.35 1.42 1.52 1.50 1.48 1.41 1.39 1.25 1.20 1.27 1.26 1.27 1.33 1.33 1.30 1.29 1.39 1.69 2.01 2.01 2.09 2.22 2.02
1.56 1.60 1.74 1.98 2.25 2.20 2.21 2.29 2.38 2.38 2.38 2.39 2.29 2.18 2.03 1.97 1.95 1.63 1.44 1.33 1.41 1.46 1.41 1.41 1.40 1.39 1.19 1.10 1.08 1.11 1.16 1.15 1.27 1.32 1.33 1.34 1.40 1.49 1.63 1.71 1.79 1.87 1.86
1.63 1.63 1.72 1.98 2.09 2.14 2.28 2.33 2.43 2.52 2.49 2.44 2.43 2.28 2.23 2.15 1.89 1.63 1.45 1.40 1.46 1.53 1.51 1.47 1.43 1.30 1.07 0.97 0.86 0.83 0.87 0.85 0.90 1.04 1.11 1.14 1.20 1.27 1.38 1.53 1.71 1.78 1.78
1.56 1.53 1.62 1.78 1.88 2.03 2.12 2.07 2.12 2.25 2.24 2.26 2.27 2.21 2.25 2.35 2.19 1.75 1.44 1.34 1.39 1.47 1.60 1.65 1.45 1.28 1.12 0.98 0.92 0.85 0.78 0.73 0.82 0.91 0.96 0.97 1.02 1.11 1.29 1.51 1.72 1.91 1.86
1.50 1.45 1.55 1.76 1.88 1.95 2.02 2.00 2.05 2.10 2.16 2.23 2.25 2.18 2.19 2.32 2.30 1.97 1.64 1.44 1.33 1.29 1.31 1.31 1.22 1.15 1.04 0.93 0.85 0.77 0.69 0.73 0.80 0.82 0.89 0.97 1.08 1.25 1.34 1.37 1.47 1.69 1.86
1.60 1.55 1.63 1.74 1.83 1.98 2.04 2.07 2.07 2.07 2.05 2.05 2.04 1.98 1.98 2.09 2.11 1.90 1.65 1.49 1.36 1.30 1.27 1.28 1.25 1.25 1.14 1.05 0.98 0.93 0.93 0.95 0.91 0.91 0.98 1.06 1.12 1.20 1.30 1.37 1.45 1.51 1.55
1.72 1.68 1.64 1.61 1.69 1.76 1.81 1.77 1.72 1.67 1.65 1.58 1.56 1.47 1.45 1.61 1.61 1.36 1.22 1.24 1.23 1.17 1.14 1.18 1.25 1.29 1.24 1.17 1.13 1.08 1.09 1.08 1.04 1.06 1.09 1.14 1.19 1.21 1.28 1.42 1.54 1.56 1.46
1.74 1.62 1.53 1.47 1.47 1.49 1.58 1.66 1.71 1.61 1.51 1.38 1.30 1.20 1.12 1.32 1.38 1.22 1.09 1.03 0.98 0.96 0.98 1.05 1.10 1.18 1.23 1.14 1.06 1.01 1.01 1.03 1.09 1.12 1.13 1.16 1.23 1.28 1.33 1.42 1.55 1.62 1.54
1.69 1.58 1.42 1.34 1.35 1.35 1.44 1.53 1.58 1.59 1.54 1.34 1.18 1.09 0.99 1.09 1.19 1.14 1.03 0.91 0.88 0.87 0.90 0.99 1.06 1.12 1.19 1.15 1.07 1.07 1.10 1.15 1.14 1.14 1.16 1.19 1.26 1.32 1.37 1.42 1.48 1.55 1.56
1.65 1.54 1.42 1.38 1.38 1.30 1.23 1.26 1.31 1.36 1.43 1.38 1.20 1.12 1.05 1.08 1.15 1.09 0.96 0.83 0.86 0.86 0.88 0.95 1.02 1.09 1.12 1.10 1.10 1.12 1.14 1.17 1.13 1.15 1.22 1.28 1.28 1.36 1.36 1.41 1.50 1.61 1.62
1.40 1.36 1.32 1.32 1.32 1.26 1.21 1.23 1.29 1.36 1.42 1.39 1.26 1.16 1.06 1.04 1.07 1.06 0.96 0.89 0.87 0.84 0.84 0.91 1.00 1.05 1.09 1.12 1.20 1.26 1.23 1.26 1.28 1.23 1.26 1.34 1.31 1.32 1.33 1.35 1.45 1.51 1.52
1.22 1.16 1.11 1.10 1.12 1.12 1.12 1.20 1.33 1.40 1.43 1.33 1.15 1.01 0.93 0.85 0.92 0.93 0.96 1.00 0.98 0.97 0.98 0.97 1.03 1.09 1.12 1.20 1.27 1.32 1.33 1.34 1.36 1.31 1.30 1.37 1.38 1.40 1.41 1.37 1.38 1.49 1.49
1.29 1.13 1.00 0.96 1.00 1.03 1.10 1.21 1.28 1.27 1.20 1.14 1.04 0.96 0.92 0.85 0.87 0.90 0.95 0.96 0.96 0.96 0.93 0.94 0.96 1.03 1.07 1.11 1.17 1.23 1.25 1.25 1.28 1.34 1.34 1.36 1.37 1.35 1.37 1.36 1.34 1.44 1.54
1.13 0.94 0.78 0.74 0.78 0.89 1.04 1.21 1.25 1.17 1.06 1.01 1.00 0.96 0.96 0.97 0.95 0.95 0.97 0.95 0.93 0.91 0.88 0.90 0.92 0.97 1.03 1.03 1.02 1.07 1.11 1.12 1.11 1.18 1.29 1.30 1.33 1.36 1.37 1.39 1.39 1.43 1.52
1.05 0.87 0.72 0.67 0.70 0.81 0.98 1.17 1.18 1.07 1.02 1.04 1.03 1.03 1.01 1.00 0.98 0.99 1.01 1.02 0.99 0.95 0.92 0.95 0.95 0.90 0.92 0.96 0.93 0.89 0.90 0.90 0.90 0.99 1.12 1.23 1.27 1.36 1.36 1.37 1.41 1.40 1.48
0.93 0.85 0.74 0.72 0.77 0.91 1.09 1.18 1.11 1.02 0.98 0.97 0.97 1.04 1.10 1.09 1.06 1.03 1.02 1.06 1.07 1.08 1.02 0.97 0.94 0.88 0.82 0.82 0.83 0.80 0.80 0.73 0.71 0.78 0.89 1.03 1.09 1.20 1.26 1.29 1.37 1.41 1.43
0.87 0.84 0.79 0.78 0.86 1.01 1.10 1.10 0.99 0.94 0.99 0.96 0.94 0.98 1.05 1.10 1.12 1.15 1.14 1.09 1.04 0.99 0.92 0.87 0.84 0.83 0.79 0.74 0.70 0.66 0.62 0.58 0.60 0.68 0.76 0.86 0.97 1.07 1.17 1.23 1.26 1.34 1.35

GEFSGL_prec_meanprecacc_252.txt.gz
Total_Precipitation_Accumulation
1.18 1.21 1.32 1.49 1.59 1.64 1.79 1.78 1.73 1.71 1.76 1.72 1.67 1.70 1.68 1.58 1.64 1.83 1.94 2.13 2.27 2.34 2.31 2.34 2.33 2.45 2.51 2.41 2.51 2.63 2.87 3.06 2.72 2.21 2.27 2.42 2.37 2.14 1.95 1.77 1.65 1.61 1.60
1.16 1.24 1.32 1.42 1.50 1.56 1.62 1.70 1.76 1.74 1.81 1.79 1.74 1.71 1.58 1.57 1.66 1.75 1.89 2.06 2.21 2.31 2.41 2.50 2.29 2.39 2.52 2.47 2.48 2.50 2.62 2.91 2.80 2.64 2.58 2.65 2.56 2.30 2.07 1.80 1.50 1.37 1.42
1.29 1.30 1.26 1.33 1.32 1.38 1.48 1.55 1.68 1.74 1.80 1.85 1.85 1.77 1.71 1.74 1.82 1.86 1.91 2.04 2.16 2.24 2.34 2.35 2.31 2.44 2.34 2.41 2.50 2.46 2.46 2.52 2.64 2.61 2.49 2.55 2.47 2.27 2.08 1.82 1.58 1.54 1.39
1.19 1.23 1.27 1.27 1.32 1.42 1.51 1.57 1.66 1.67 1.72 1.72 1.70 1.78 1.83 1.86 1.88 1.87 1.86 1.88 1.95 2.03 2.03 1.95 1.90 1.95 2.03 2.22 2.22 2.23 2.31 2.38 2.46 2.40 2.37 2.43 2.43 2.46 2.29 1.99 1.84 1.67 1.49
1.21 1.18 1.24 1.35 1.38 1.42 1.42 1.46 1.53 1.57 1.56 1.71 1.74 1.84 1.91 1.88 1.77 1.81 1.81 1.73 1.88 1.84 1.71 1.66 1.67 1.76 1.78 1.87 1.79 1.90 2.09 2.16 2.21 2.28 2.35 2.50 2.50 2.62 2.48 2.20 2.05 1.91 1.64
1.20 1.29 1.37 1.39 1.32 1.39 1.42 1.43 1.47 1.54 1.61 1.70 1.76 1.88 1.94 1.79 1.84 1.86 1.86 1.83 1.85 1.80 1.75 1.69 1.55 1.54 1.53 1.56 1.57 1.62 1.78 1.92 2.09 2.25 2.31 2.40 2.46 2.41 2.37 2.25 2.14 1.97 1.69
1.25 1.26 1.44 1.54 1.46 1.54 1.58 1.58 1.56 1.56 1.68 1.77 1.91 1.97 1.94 2.02 1.94 1.77 1.75 1.70 1.75 1.78 1.82 1.79 1.51 1.33 1.45 1.41 1.53 1.51 1.48 1.53 1.63 1.80 1.92 2.05 2.26 2.34 2.42 2.34 2.34 2.21 1.91
1.30 1.38 1.62 1.77 1.68 1.70 1.72 1.74 1.77 1.82 1.85 1.96 2.00 1.92 1.88 1.95 1.89 1.55 1.43 1.34 1.47 1.58 1.65 1.72 1.71 1.60 1.57 1.57 1.62 1.62 1.55 1.52 1.61 1.60 1.64 1.85 2.19 2.48 2.52 2.47 2.50 2.37 2.06
1.45 1.56 1.78 2.02 2.16 2.12 1.98 2.06 2.14 2.12 2.10 2.16 2.19 2.13 1.99 1.97 1.81 1.45 1.29 1.22 1.36 1.45 1.51 1.51 1.52 1.44 1.48 1.39 1.40 1.47 1.47 1.42 1.41 1.42 1.44 1.56 1.83 2.20 2.40 2.43 2.51 2.41 2.17
1.63 1.64 1.79 2.02 2.14 2.12 2.14 2.35 2.45 2.37 2.27 2.28 2.17 2.03 1.92 1.91 1.88 1.55 1.34 1.25 1.37 1.46 1.57 1.54 1.52 1.47 1.45 1.29 1.23 1.30 1.28 1.28 1.36 1.36 1.33 1.33 1.42 1.72 2.04 2.03 2.11 2.24 2.03
1.61 1.64 1.77 2.02 2.31 2.28 2.31 2.39 2.45 2.45 2.44 2.45 2.34 2.22 2.07 2.01 1.99 1.68 1.47 1.36 1.43 1.49 1.44 1.43 1.43 1.42 1.22 1.12 1.09 1.13 1.17 1.17 1.29 1.34 1.35 1.37 1.43 1.52 1.66 1.73 1.81 1.89 1.88
1.66 1.66 1.75 2.02 2.15 2.21 2.34 2.38 2.47 2.56 2.53 2.49 2.48 2.32 2.27 2.19 1.92 1.66 1.47 1.43 1.49 1.54 1.52 1.49 1.46 1.33 1.10 0.99 0.88 0.85 0.89 0.88 0.93 1.08 1.14 1.18 1.25 1.32 1.43 1.58 1.74 1.80 1.80
1.58 1.55 1.64 1.81 1.91 2.06 2.15 2.09 2.15 2.28 2.27 2.29 2.30 2.25 2.28 2.38 2.21 1.78 1.47 1.37 1.41 1.49 1.62 1.68 1.48 1.30 1.14 1.01 0.94 0.86 0.79 0.75 0.85 0.95 1.01 1.01 1.06 1.17 1.35 1.57 1.76 1.95 1.89
1.53 1.48 1.59 1.80 1.90 1.98 2.04 2.02 2.07 2.12 2.19 2.26 2.28 2.22 2.23 2.35 2.33 2.00 1.67 1.47 1.37 1.33 1.36 1.35 1.25 1.18 1.06 0.94 0.87 0.78 0.70 0.74 0.81 0.84 0.91 0.99 1.10 1.28 1.38 1.40 1.51 1.73 1.89
1.65 1.59 1.68 1.79 1.87 2.02 2.08 2.10 2.10 2.09 2.07 2.07 2.07 2.02 2.02 2.13 2.14 1.93 1.68 1.53 1.40 1.34 1.30 1.29 1.26 1.26 1.15 1.06 0.99 0.94 0.94 0.96 0.92 0.92 0.99 1.08 1.14 1.22 1.32 1.40 1.48 1.54 1.58
1.78 1.73 1.70 1.66 1.74 1.80 1.84 1.79 1.74 1.69 1.67 1.61 1.60 1.52 1.50 1.65 1.65 1.39 1.24 1.26 1.25 1.21 1.16 1.19 1.26 1.30 1.25 1.18 1.14 1.09 1.11 1.10 1.06 1.08 1.10 1.15 1.20 1.23 1.30 1.44 1.57 1.59 1.49
1.82 1.69 1.57 1.51 1.51 1.53 1.62 1.70 1.74 1.64 1.53 1.42 1.36 1.25 1.16 1.35 1.41 1.24 1.11 1.05 1.01 0.99 1.00 1.06 1.11 1.19 1.24 1.15 1.07 1.03 1.03 1.06 1.14 1.17 1.16 1.19 1.26 1.31 1.35 1.45 1.58 1.66 1.59
1.80 1.67 1.47 1.38 1.37 1.37 1.49 1.59 1.62 1.63 1.58 1.38 1.22 1.12 1.01 1.11 1.21 1.17 1.05 0.93 0.90 0.90 0.92 1.01 1.08 1.14 1.21 1.17 1.09 1.10 1.13 1.17 1.17 1.17 1.19 1.22 1.29 1.34 1.39 1.44 1.51 1.59 1.59
1.74 1.62 1.47 1.42 1.41 1.33 1.27 1.32 1.37 1.41 1.47 1.40 1.22 1.14 1.07 1.10 1.17 1.12 0.99 0.86 0.90 0.90 0.92 0.99 1.05 1.11 1.14 1.13 1.13 1.16 1.17 1.20 1.15 1.17 1.23 1.29 1.30 1.38 1.38 1.43 1.52 1.63 1.64
1.44 1.39 1.34 1.34 1.35 1.30 1.25 1.26 1.33 1.39 1.45 1.41 1.28 1.18 1.08 1.06 1.09 1.09 0.98 0.92 0.91 0.90 0.90 0.97 1.05 1.10 1.13 1.15 1.23 1.30 1.29 1.31 1.32 1.26 1.29 1.36 1.32 1.34 1.35 1.37 1.47 1.53 1.54
1.25 1.19 1.13 1.13 1.15 1.14 1.15 1.22 1.35 1.42 1.45 1.35 1.16 1.02 0.95 0.86 0.93 0.95 0.98 1.02 1.02 1.04 1.07 1.07 1.11 1.16 1.19 1.25 1.31 1.37 1.38 1.38 1.39 1.33 1.32 1.40 1.40 1.42 1.44 1.40 1.41 1.51 1.52
1.32 1.16 1.03 0.99 1.02 1.05 1.12 1.23 1.31 1.30 1.23 1.17 1.06 0.97 0.94 0.87 0.88 0.90 0.96 0.98 0.99 1.01 0.99 1.01 1.03 1.10 1.13 1.18 1.22 1.27 1.30 1.31 1.35 1.39 1.39 1.40 1.41 1.38 1.40 1.38 1.36 1.47 1.56
1.16 0.97 0.81 0.77 0.80 0.91 1.06 1.23 1.28 1.19 1.08 1.03 1.02 0.98 0.99 0.99 0.96 0.96 0.98 0.97 0.96 0.94 0.93 0.96 0.97 1.00 1.07 1.07 1.06 1.12 1.16 1.16 1.17 1.25 1.35 1.36 1.38 1.40 1.40 1.42 1.41 1.45 1.55
1.08 0.90 0.75 0.70 0.73 0.83 1.00 1.19 1.20 1.09 1.03 1.05 1.05 1.05 1.04 1.01 0.99 1.00 1.02 1.04 1.01 0.98 0.96 1.00 0.99 0.94 0.96 1.00 0.98 0.94 0.95 0.94 0.94 1.03 1.17 1.28 1.32 1.40 1.40 1.41 1.45 1.44 1.52
0.97 0.89 0.78 0.75 0.80 0.93 1.11 1.20 1.13 1.04 1.00 0.99 0.99 1.06 1.12 1.11 1.07 1.04 1.03 1.08 1.09 1.11 1.06 1.01 1.00 0.93 0.87 0.87 0.88 0.84 0.84 0.77 0.74 0.82 0.95 1.10 1.17 1.27 1.32 1.35 1.44 1.46 1.47
0.92 0.89 0.84 0.81 0.90 1.05 1.14 1.13 1.02 0.98 1.03 0.99 0.96 1.01 1.08 1.12 1.14 1.17 1.15 1.10 1.05 1.01 0.94 0.91 0.89 0.88 0.84 0.78 0.74 0.70 0.65 0.61 0.63 0.72 0.80 0.91 1.02 1.12 1.22 1.28 1.32 1.38 1.38

GEFSGL_prec_meanprecacc_258.txt.gz
Total_Precipitation_Accumulation
1.19 1.21 1.33 1.50 1.60 1.64 1.80 1.79 1.74 1.73 1.78 1.76 1.75 1.77 1.74 1.64 1.72 1.91 2.02 2.21 2.35 2.40 2.37 2.39 2.38 2.51 2.57 2.46 2.56 2.68 2.91 3.09 2.74 2.22 2.29 2.44 2.38 2.15 1.96 1.78 1.66 1.63 1.62
1.17 1.25 1.32 1.42 1.52 1.58 1.65 1.73 1.79 1.77 1.83 1.84 1.82 1.77 1.63 1.62 1.70 1.81 1.94 2.13 2.28 2.36 2.46 2.55 2.35 2.46 2.59 2.53 2.54 2.57 2.68 2.95 2.83 2.66 2.60 2.66 2.58 2.32 2.08 1.81 1.52 1.38 1.44
1.29 1.31 1.28 1.35 1.35 1.41 1.50 1.57 1.71 1.77 1.83 1.90 1.91 1.82 1.76 1.79 1.87 1.92 1.97 2.12 2.22 2.29 2.40 2.41 2.37 2.51 2.39 2.46 2.56 2.53 2.54 2.58 2.69 2.64 2.50 2.56 2.49 2.29 2.10 1.84 1.59 1.56 1.41
1.23 1.28 1.29 1.29 1.35 1.45 1.54 1.60 1.68 1.69 1.74 1.75 1.74 1.81 1.87 1.92 1.93 1.92 1.92 1.95 2.01 2.08 2.08 1.99 1.94 1.99 2.07 2.26 2.27 2.28 2.37 2.44 2.51 2.43 2.39 2.45 2.45 2.48 2.31 2.02 1.86 1.69 1.51
1.24 1.20 1.26 1.37 1.41 1.46 1.48 1.51 1.57 1.59 1.58 1.74 1.77 1.87 1.96 1.93 1.81 1.84 1.85 1.77 1.92 1.88 1.75 1.69 1.70 1.80 1.82 1.91 1.83 1.94 2.13 2.21 2.26 2.33 2.40 2.55 2.53 2.64 2.51 2.22 2.08 1.94 1.66
1.23 1.33 1.42 1.44 1.38 1.45 1.49 1.49 1.51 1.57 1.64 1.74 1.80 1.92 1.98 1.82 1.86 1.89 1.90 1.87 1.89 1.83 1.78 1.71 1.58 1.58 1.57 1.60 1.60 1.66 1.82 1.96 2.14 2.29 2.35 2.44 2.50 2.46 2.42 2.29 2.17 2.00 1.73
1.30 1.32 1.51 1.61 1.52 1.58 1.62 1.62 1.60 1.60 1.73 1.81 1.94 2.01 1.97 2.05 1.98 1.81 1.79 1.74 1.78 1.80 1.84 1.82 1.54 1.36 1.48 1.43 1.55 1.54 1.52 1.58 1.69 1.85 1.97 2.10 2.30 2.37 2.45 2.36 2.36 2.24 1.94
1.42 1.49 1.71 1.85 1.74 1.75 1.77 1.79 1.83 1.88 1.90 2.01 2.05 1.97 1.93 2.00 1.96 1.63 1.50 1.39 1.51 1.61 1.69 1.75 1.74 1.64 1.59 1.58 1.63 1.63 1.56 1.55 1.64 1.63 1.66 1.89 2.22 2.51 2.56 2.50 2.52 2.39 2.09
1.61 1.72 1.92 2.12 2.25 2.20 2.07 2.14 2.22 2.20 2.16 2.22 2.25 2.19 2.06 2.06 1.90 1.53 1.36 1.27 1.41 1.50 1.55 1.55 1.57 1.49 1.51 1.41 1.42 1.48 1.48 1.44 1.43 1.43 1.46 1.58 1.85 2.23 2.44 2.46 2.54 2.43 2.20
1.77 1.78 1.93 2.14 2.23 2.21 2.23 2.43 2.54 2.44 2.33 2.34 2.24 2.11 2.00 1.99 1.95 1.62 1.40 1.30 1.42 1.51 1.62 1.61 1.59 1.52 1.48 1.30 1.24 1.31 1.28 1.30 1.37 1.37 1.34 1.34 1.44 1.74 2.07 2.07 2.14 2.27 2.05
1.73 1.75 1.87 2.10 2.37 2.34 2.37 2.46 2.53 2.52 2.51 2.50 2.40 2.27 2.10 2.05 2.04 1.73 1.53 1.41 1.48 1.54 1.49 1.49 1.49 1.49 1.26 1.15 1.11 1.14 1.18 1.19 1.31 1.35 1.36 1.38 1.45 1.54 1.69 1.77 1.85 1.93 1.92
1.75 1.72 1.80 2.07 2.21 2.26 2.40 2.45 2.54 2.64 2.62 2.56 2.52 2.35 2.29 2.22 1.95 1.70 1.52 1.48 1.54 1.59 1.57 1.53 1.50 1.37 1.14 1.02 0.89 0.86 0.90 0.89 0.94 1.08 1.15 1.19 1.26 1.33 1.44 1.60 1.77 1.84 1.85
1.62 1.59 1.68 1.85 1.95 2.10 2.21 2.15 2.20 2.32 2.30 2.34 2.34 2.27 2.31 2.41 2.24 1.81 1.52 1.43 1.47 1.54 1.66 1.72 1.52 1.33 1.17 1.04 0.97 0.88 0.80 0.76 0.85 0.96 1.02 1.02 1.07 1.17 1.36 1.58 1.78 1.98 1.93
1.56 1.50 1.61 1.83 1.94 2.02 2.08 2.05 2.10 2.15 2.21 2.28 2.30 2.24 2.25 2.38 2.38 2.06 1.73 1.52 1.42 1.38 1.39 1.38 1.29 1.21 1.09 0.97 0.90 0.81 0.72 0.75 0.82 0.85 0.93 1.01 1.11 1.29 1.38 1.41 1.53 1.75 1.92
1.66 1.61 1.70 1.80 1.89 2.06 2.12 2.14 2.13 2.13 2.10 2.09 2.09 2.04 2.05 2.17 2.20 1.98 1.72 1.56 1.44 1.39 1.33 1.32 1.29 1.29 1.18 1.08 1.00 0.96 0.96 0.97 0.94 0.93 1.00 1.09 1.16 1.23 1.34 1.41 1.50 1.57 1.61
1.80 1.76 1.72 1.68 1.76 1.83 1.87 1.82 1.76 1.70 1.69 1.63 1.62 1.54 1.53 1.69 1.68 1.42 1.27 1.28 1.29 1.25 1.19 1.21 1.28 1.32 1.27 1.20 1.15 1.11 1.12 1.11 1.08 1.09 1.12 1.17 1.22 1.25 1.32 1.47 1.60 1.62 1.52
1.85 1.73 1.62 1.55 1.54 1.56 1.64 1.71 1.75 1.65 1.55 1.45 1.38 1.27 1.18 1.37 1.44 1.27 1.13 1.07 1.04 1.02 1.03 1.09 1.13 1.22 1.27 1.18 1.10 1.05 1.05 1.08 1.16 1.19 1.18 1.21 1.29 1.33 1.38 1.47 1.61 1.70 1.63
1.85 1.74 1.55 1.44 1.42 1.41 1.51 1.60 1.63 1.64 1.60 1.40 1.24 1.14 1.03 1.13 1.24 1.20 1.08 0.95 0.92 0.92 0.94 1.04 1.12 1.17 1.25 1.22 1.13 1.13 1.16 1.20 1.18 1.19 1.22 1.24 1.32 1.37 1.41 1.46 1.53 1.61 1.62
1.81 1.71 1.57 1.51 1.48 1.37 1.29 1.32 1.37 1.42 1.48 1.41 1.23 1.15 1.09 1.12 1.20 1.15 1.02 0.89 0.92 0.92 0.94 1.00 1.07 1.15 1.19 1.18 1.19 1.22 1.22 1.25 1.20 1.21 1.27 1.33 1.33 1.40 1.41 1.46 1.54 1.64 1.66
1.52 1.49 1.43 1.42 1.40 1.33 1.26 1.27 1.34 1.40 1.46 1.42 1.29 1.19 1.11 1.08 1.11 1.11 1.01 0.94 0.93 0.91 0.92 0.99 1.07 1.13 1.17 1.20 1.29 1.36 1.35 1.37 1.37 1.32 1.34 1.40 1.36 1.37 1.38 1.39 1.51 1.57 1.57
1.31 1.25 1.18 1.16 1.18 1.18 1.18 1.24 1.37 1.44 1.47 1.38 1.18 1.04 0.97 0.88 0.95 0.97 1.00 1.03 1.03 1.05 1.08 1.09 1.15 1.21 1.24 1.31 1.39 1.46 1.47 1.46 1.46 1.39 1.37 1.44 1.44 1.46 1.48 1.44 1.45 1.56 1.56
1.37 1.21 1.06 1.01 1.04 1.08 1.17 1.27 1.33 1.33 1.26 1.19 1.08 0.99 0.96 0.89 0.89 0.91 0.97 0.99 1.00 1.02 1.00 1.03 1.07 1.15 1.19 1.25 1.30 1.35 1.38 1.38 1.42 1.46 1.44 1.44 1.44 1.42 1.45 1.42 1.40 1.51 1.61
1.19 1.00 0.84 0.79 0.83 0.94 1.10 1.28 1.31 1.22 1.11 1.06 1.04 1.01 1.00 1.00 0.98 0.97 0.99 0.98 0.97 0.95 0.94 0.98 0.99 1.02 1.10 1.11 1.11 1.18 1.23 1.25 1.27 1.35 1.44 1.42 1.43 1.45 1.47 1.50 1.49 1.52 1.60
1.10 0.93 0.79 0.73 0.76 0.86 1.03 1.23 1.24 1.11 1.05 1.08 1.08 1.08 1.06 1.03 1.01 1.01 1.03 1.05 1.03 0.99 0.97 1.01 1.01 0.96 0.98 1.03 1.01 0.98 0.99 0.99 1.01 1.11 1.25 1.36 1.39 1.46 1.46 1.49 1.54 1.53 1.60
1.02 0.93 0.83 0.80 0.84 0.97 1.16 1.25 1.17 1.06 1.01 1.01 1.01 1.09 1.15 1.14 1.11 1.08 1.07 1.11 1.12 1.13 1.08 1.03 1.01 0.95 0.88 0.88 0.90 0.87 0.88 0.81 0.79 0.86 0.99 1.14 1.21 1.32 1.38 1.41 1.51 1.54 1.55
0.97 0.96 0.91 0.90 0.97 1.10 1.19 1.18 1.07 1.00 1.05 1.02 0.99 1.04 1.11 1.15 1.17 1.21 1.19 1.13 1.09 1.03 0.97 0.93 0.90 0.89 0.85 0.79 0.75 0.72 0.68 0.65 0.67 0.77 0.85 0.95 1.06 1.16 1.26 1.33 1.36 1.44 1.45

GEFSGL_prec_meanprecacc_264.txt.gz
Total_Precipitation_Accumulation
1.19 1.21 1.33 1.50 1.60 1.65 1.81 1.80 1.75 1.75 1.81 1.80 1.80 1.82 1.77 1.68 1.77 1.97 2.08 2.27 2.43 2.47 2.41 2.43 2.43 2.58 2.63 2.52 2.61 2.74 2.97 3.16 2.81 2.29 2.36 2.50 2.43 2.20 2.00 1.81 1.69 1.65 1.64
1.17 1.25 1.32 1.43 1.52 1.59 1.65 1.73 1.79 1.78 1.87 1.89 1.88 1.85 1.70 1.68 1.77 1.87 2.00 2.18 2.31 2.39 2.50 2.60 2.39 2.52 2.64 2.58 2.59 2.61 2.74 3.02 2.90 2.72 2.65 2.72 2.65 2.40 2.14 1.86 1.55 1.41 1.46
1.29 1.31 1.28 1.35 1.35 1.41 1.51 1.58 1.72 1.80 1.87 1.97 2.00 1.92 1.84 1.85 1.91 1.96 2.02 2.16 2.26 2.32 2.43 2.44 2.40 2.54 2.43 2.50 2.60 2.56 2.57 2.62 2.73 2.69 2.54 2.59 2.53 2.35 2.16 1.88 1.63 1.59 1.43
1.23 1.28 1.29 1.29 1.35 1.46 1.55 1.61 1.69 1.70 1.78 1.81 1.80 1.87 1.92 1.96 1.97 1.96 1.96 2.00 2.05 2.11 2.10 2.01 1.96 2.01 2.08 2.29 2.29 2.31 2.40 2.47 2.55 2.47 2.42 2.48 2.48 2.51 2.35 2.06 1.90 1.73 1.54
1.24 1.21 1.27 1.38 1.42 1.47 1.49 1.52 1.58 1.61 1.60 1.77 1.80 1.90 1.99 1.96 1.84 1.87 1.88 1.81 1.95 1.90 1.76 1.72 1.72 1.82 1.84 1.93 1.85 1.96 2.16 2.25 2.29 2.35 2.42 2.57 2.56 2.67 2.54 2.26 2.13 1.98 1.70
1.24 1.35 1.44 1.46 1.40 1.47 1.51 1.52 1.53 1.58 1.65 1.75 1.81 1.93 1.99 1.84 1.88 1.91 1.92 1.90 1.92 1.86 1.81 1.74 1.61 1.61 1.60 1.62 1.62 1.68 1.84 1.99 2.16 2.31 2.37 2.46 2.52 2.49 2.47 2.33 2.22 2.04 1.76
1.33 1.36 1.55 1.66 1.57 1.62 1.65 1.64 1.61 1.61 1.74 1.82 1.95 2.02 1.98 2.07 2.00 1.83 1.83 1.79 1.82 1.84 1.87 1.85 1.56 1.38 1.51 1.46 1.57 1.55 1.53 1.60 1.71 1.87 1.98 2.11 2.32 2.41 2.50 2.41 2.40 2.27 1.96
1.45 1.53 1.78 1.94 1.82 1.81 1.80 1.82 1.85 1.90 1.92 2.02 2.06 1.98 1.95 2.02 1.98 1.66 1.54 1.44 1.54 1.64 1.71 1.78 1.77 1.66 1.61 1.62 1.66 1.66 1.58 1.56 1.66 1.64 1.68 1.90 2.25 2.54 2.60 2.54 2.57 2.43 2.12
1.63 1.75 1.98 2.20 2.32 2.27 2.12 2.18 2.25 2.22 2.18 2.24 2.26 2.21 2.08 2.08 1.93 1.57 1.38 1.29 1.43 1.52 1.58 1.57 1.59 1.52 1.55 1.45 1.45 1.51 1.51 1.47 1.47 1.46 1.48 1.61 1.88 2.25 2.46 2.49 2.56 2.46 2.23
1.80 1.83 1.99 2.19 2.29 2.26 2.27 2.46 2.57 2.47 2.36 2.37 2.27 2.14 2.04 2.03 1.98 1.64 1.43 1.34 1.47 1.55 1.65 1.63 1.61 1.55 1.52 1.35 1.28 1.35 1.32 1.34 1.43 1.42 1.38 1.37 1.47 1.76 2.10 2.09 2.16 2.30 2.08
1.77 1.80 1.92 2.15 2.41 2.37 2.39 2.48 2.56 2.56 2.54 2.54 2.44 2.30 2.13 2.07 2.05 1.74 1.54 1.42 1.50 1.56 1.50 1.51 1.51 1.51 1.29 1.19 1.15 1.17 1.22 1.23 1.36 1.39 1.40 1.42 1.48 1.56 1.71 1.79 1.87 1.97 1.95
1.78 1.75 1.84 2.11 2.24 2.29 2.43 2.47 2.57 2.67 2.64 2.60 2.56 2.37 2.31 2.24 1.97 1.71 1.54 1.49 1.55 1.60 1.58 1.54 1.51 1.39 1.16 1.06 0.94 0.89 0.94 0.93 0.98 1.12 1.18 1.21 1.29 1.35 1.46 1.61 1.79 1.87 1.88
1.64 1.62 1.71 1.88 1.97 2.12 2.23 2.18 2.23 2.34 2.33 2.36 2.36 2.29 2.32 2.42 2.25 1.82 1.53 1.44 1.48 1.55 1.67 1.73 1.53 1.34 1.19 1.07 1.01 0.93 0.84 0.79 0.88 0.98 1.04 1.04 1.09 1.20 1.38 1.60 1.80 2.01 1.95
1.58 1.53 1.64 1.85 1.96 2.04 2.09 2.08 2.13 2.18 2.24 2.31 2.32 2.26 2.27 2.40 2.38 2.07 1.74 1.52 1.43 1.39 1.40 1.40 1.30 1.23 1.10 0.99 0.92 0.83 0.74 0.77 0.84 0.87 0.95 1.03 1.13 1.31 1.41 1.43 1.54 1.78 1.96
1.68 1.63 1.72 1.83 1.92 2.09 2.15 2.17 2.17 2.16 2.13 2.12 2.11 2.06 2.07 2.18 2.21 1.99 1.72 1.56 1.45 1.40 1.35 1.33 1.30 1.30 1.19 1.10 1.03 0.98 0.98 0.99 0.96 0.95 1.02 1.12 1.18 1.26 1.36 1.44 1.52 1.60 1.64
1.82 1.78 1.74 1.70 1.78 1.85 1.89 1.85 1.80 1.74 1.73 1.67 1.65 1.57 1.56 1.71 1.71 1.44 1.28 1.29 1.30 1.26 1.20 1.23 1.29 1.33 1.28 1.21 1.17 1.13 1.14 1.13 1.10 1.12 1.14 1.20 1.25 1.27 1.35 1.49 1.63 1.66 1.57
1.86 1.74 1.63 1.56 1.56 1.57 1.66 1.74 1.79 1.67 1.57 1.47 1.40 1.29 1.19 1.39 1.46 1.29 1.15 1.09 1.05 1.04 1.05 1.11 1.15 1.24 1.29 1.20 1.11 1.07 1.07 1.10 1.18 1.22 1.21 1.24 1.32 1.36 1.40 1.49 1.63 1.74 1.67
1.86 1.75 1.56 1.46 1.45 1.44 1.54 1.63 1.66 1.67 1.62 1.42 1.26 1.16 1.05 1.15 1.26 1.22 1.11 0.97 0.93 0.93 0.95 1.05 1.13 1.19 1.27 1.23 1.14 1.14 1.18 1.22 1.21 1.22 1.25 1.27 1.35 1.40 1.44 1.49 1.55 1.63 1.66
1.83 1.73 1.60 1.55 1.54 1.43 1.34 1.37 1.41 1.46 1.52 1.44 1.25 1.17 1.12 1.15 1.23 1.18 1.04 0.90 0.93 0.93 0.94 1.01 1.09 1.16 1.20 1.19 1.20 1.24 1.24 1.27 1.22 1.24 1.30 1.35 1.36 1.44 1.44 1.49 1.57 1.68 1.69
1.54 1.53 1.48 1.48 1.48 1.41 1.34 1.33 1.39 1.45 1.51 1.46 1.32 1.22 1.13 1.10 1.14 1.14 1.03 0.95 0.94 0.92 0.93 1.00 1.08 1.13 1.18 1.21 1.30 1.37 1.37 1.39 1.40 1.35 1.37 1.43 1.39 1.40 1.40 1.43 1.55 1.61 1.61
1.34 1.29 1.23 1.22 1.24 1.25 1.24 1.29 1.41 1.48 1.51 1.41 1.21 1.08 1.00 0.89 0.97 0.99 1.01 1.04 1.03 1.06 1.09 1.11 1.16 1.22 1.25 1.33 1.41 1.47 1.49 1.49 1.50 1.44 1.42 1.48 1.48 1.50 1.51 1.47 1.50 1.61 1.61
1.39 1.23 1.09 1.04 1.07 1.11 1.20 1.30 1.36 1.36 1.29 1.22 1.11 1.02 1.00 0.91 0.92 0.93 0.99 1.00 1.01 1.02 1.01 1.04 1.07 1.15 1.20 1.26 1.31 1.37 1.40 1.40 1.45 1.49 1.47 1.48 1.49 1.47 1.50 1.48 1.46 1.56 1.67
1.21 1.02 0.86 0.82 0.86 0.97 1.13 1.31 1.34 1.25 1.14 1.09 1.07 1.03 1.03 1.03 1.00 0.99 1.01 1.00 0.99 0.97 0.96 0.99 1.00 1.04 1.11 1.12 1.12 1.19 1.25 1.27 1.29 1.37 1.47 1.45 1.47 1.50 1.52 1.56 1.55 1.59 1.68
1.12 0.95 0.82 0.76 0.79 0.89 1.07 1.27 1.28 1.15 1.09 1.12 1.11 1.10 1.08 1.06 1.03 1.04 1.06 1.07 1.05 1.01 0.99 1.03 1.03 0.98 0.99 1.04 1.02 0.99 1.01 1.00 1.02 1.12 1.27 1.39 1.43 1.51 1.52 1.55 1.61 1.60 1.68
1.06 0.97 0.86 0.85 0.89 1.03 1.22 1.31 1.22 1.11 1.06 1.05 1.05 1.13 1.18 1.17 1.13 1.10 1.08 1.12 1.14 1.15 1.10 1.06 1.04 0.97 0.90 0.91 0.92 0.89 0.90 0.84 0.81 0.88 1.01 1.17 1.24 1.36 1.42 1.47 1.58 1.61 1.63
1.03 1.01 0.95 0.95 1.03 1.16 1.25 1.26 1.15 1.08 1.11 1.07 1.04 1.08 1.14 1.18 1.19 1.22 1.20 1.15 1.10 1.07 1.01 0.98 0.95 0.94 0.89 0.83 0.79 0.76 0.72 0.69 0.71 0.80 0.88 0.98 1.09 1.19 1.29 1.36 1.41 1.49 1.51

GEFSGL_prec_meanprecacc_270.txt.gz
Total_Precipitation_Accumulation
1.19 1.22 1.34 1.51 1.60 1.65 1.82 1.81 1.76 1.77 1.85 1.84 1.83 1.86 1.82 1.74 1.84 2.04 2.14 2.33 2.48 2.52 2.46 2.48 2.48 2.62 2.68 2.57 2.67 2.80 3.04 3.22 2.87 2.35 2.44 2.56 2.50 2.26 2.05 1.86 1.75 1.72 1.70
1.17 1.25 1.32 1.43 1.52 1.60 1.66 1.74 1.81 1.80 1.90 1.94 1.92 1.89 1.74 1.74 1.85 1.94 2.06 2.23 2.35 2.43 2.54 2.64 2.43 2.56 2.68 2.62 2.64 2.65 2.79 3.08 2.96 2.78 2.72 2.78 2.71 2.46 2.20 1.90 1.59 1.45 1.52
1.30 1.31 1.28 1.36 1.36 1.42 1.52 1.60 1.74 1.83 1.92 2.02 2.04 1.96 1.90 1.91 1.98 2.02 2.07 2.20 2.28 2.34 2.46 2.47 2.43 2.58 2.46 2.54 2.64 2.59 2.61 2.67 2.80 2.75 2.59 2.65 2.58 2.39 2.21 1.92 1.67 1.64 1.47
1.24 1.29 1.31 1.31 1.37 1.48 1.58 1.64 1.72 1.74 1.83 1.85 1.83 1.91 1.98 2.00 2.01 2.00 2.00 2.02 2.07 2.14 2.13 2.06 2.01 2.05 2.12 2.32 2.32 2.33 2.43 2.51 2.60 2.53 2.47 2.53 2.53 2.56 2.41 2.11 1.96 1.80 1.59
1.26 1.23 1.29 1.40 1.44 1.49 1.52 1.56 1.61 1.64 1.64 1.81 1.83 1.93 2.03 2.00 1.87 1.91 1.91 1.84 1.99 1.94 1.81 1.76 1.77 1.86 1.88 1.96 1.87 1.98 2.19 2.28 2.33 2.40 2.46 2.62 2.62 2.73 2.58 2.30 2.19 2.06 1.77
1.28 1.39 1.48 1.49 1.43 1.50 1.53 1.55 1.56 1.62 1.70 1.79 1.85 1.97 2.03 1.89 1.93 1.95 1.96 1.94 1.98 1.91 1.86 1.79 1.64 1.63 1.62 1.64 1.63 1.69 1.85 2.00 2.18 2.35 2.40 2.49 2.57 2.54 2.50 2.37 2.27 2.11 1.84
1.35 1.38 1.57 1.68 1.60 1.65 1.67 1.67 1.64 1.65 1.78 1.86 1.99 2.06 2.01 2.12 2.05 1.88 1.88 1.84 1.88 1.89 1.92 1.89 1.58 1.39 1.53 1.47 1.59 1.57 1.55 1.62 1.73 1.89 2.00 2.13 2.35 2.44 2.53 2.44 2.44 2.32 2.02
1.46 1.54 1.79 1.96 1.84 1.83 1.83 1.85 1.88 1.94 1.96 2.06 2.10 2.01 1.98 2.06 2.02 1.69 1.58 1.48 1.59 1.68 1.73 1.79 1.78 1.68 1.64 1.65 1.69 1.68 1.60 1.59 1.69 1.67 1.71 1.93 2.28 2.57 2.62 2.57 2.60 2.47 2.16
1.64 1.76 1.98 2.21 2.33 2.29 2.15 2.21 2.29 2.27 2.23 2.28 2.30 2.25 2.12 2.12 1.95 1.58 1.40 1.31 1.46 1.54 1.59 1.59 1.61 1.54 1.58 1.49 1.48 1.53 1.54 1.50 1.50 1.50 1.52 1.65 1.91 2.28 2.49 2.52 2.61 2.51 2.27
1.81 1.84 2.00 2.21 2.31 2.29 2.31 2.50 2.61 2.51 2.40 2.42 2.31 2.18 2.07 2.07 2.00 1.65 1.44 1.36 1.50 1.58 1.68 1.65 1.63 1.57 1.54 1.37 1.30 1.37 1.35 1.37 1.46 1.45 1.41 1.41 1.50 1.80 2.12 2.13 2.21 2.34 2.12
1.78 1.81 1.94 2.17 2.44 2.40 2.44 2.53 2.61 2.60 2.59 2.58 2.48 2.35 2.17 2.11 2.08 1.76 1.57 1.44 1.52 1.58 1.53 1.52 1.52 1.52 1.30 1.19 1.16 1.19 1.23 1.25 1.38 1.42 1.43 1.46 1.52 1.59 1.73 1.81 1.91 2.01 1.99
1.79 1.76 1.85 2.13 2.26 2.31 2.46 2.51 2.61 2.70 2.68 2.64 2.61 2.42 2.36 2.29 2.01 1.75 1.57 1.52 1.57 1.61 1.59 1.55 1.52 1.40 1.17 1.07 0.95 0.91 0.96 0.94 0.99 1.14 1.21 1.25 1.33 1.39 1.49 1.65 1.83 1.91 1.92
1.66 1.64 1.73 1.90 2.00 2.15 2.25 2.20 2.26 2.38 2.36 2.40 2.40 2.35 2.39 2.49 2.31 1.86 1.56 1.46 1.49 1.56 1.68 1.74 1.54 1.35 1.20 1.07 1.02 0.94 0.86 0.80 0.90 1.00 1.07 1.07 1.13 1.23 1.41 1.63 1.83 2.04 1.99
1.62 1.57 1.67 1.89 1.99 2.07 2.12 2.10 2.15 2.20 2.27 2.34 2.37 2.31 2.33 2.45 2.42 2.09 1.75 1.54 1.44 1.40 1.42 1.41 1.31 1.23 1.11 0.99 0.93 0.85 0.76 0.79 0.87 0.90 0.98 1.07 1.17 1.34 1.44 1.46 1.58 1.82 2.00
1.74 1.68 1.77 1.87 1.95 2.12 2.18 2.21 2.22 2.21 2.18 2.18 2.17 2.11 2.11 2.22 2.23 2.01 1.75 1.59 1.47 1.42 1.37 1.35 1.31 1.32 1.21 1.11 1.04 1.00 1.00 1.03 0.99 0.97 1.05 1.16 1.22 1.30 1.40 1.47 1.56 1.64 1.69
1.87 1.84 1.80 1.74 1.82 1.87 1.92 1.87 1.83 1.76 1.74 1.69 1.68 1.60 1.58 1.74 1.73 1.47 1.32 1.34 1.34 1.31 1.24 1.25 1.32 1.36 1.30 1.23 1.19 1.15 1.16 1.15 1.13 1.14 1.18 1.24 1.29 1.32 1.39 1.54 1.67 1.70 1.60
1.92 1.80 1.69 1.60 1.60 1.61 1.68 1.76 1.80 1.69 1.59 1.48 1.41 1.30 1.21 1.41 1.48 1.31 1.19 1.15 1.11 1.10 1.10 1.16 1.20 1.27 1.31 1.22 1.13 1.09 1.08 1.12 1.21 1.25 1.25 1.28 1.35 1.40 1.45 1.55 1.69 1.80 1.73
1.91 1.81 1.62 1.52 1.52 1.49 1.58 1.66 1.68 1.68 1.63 1.43 1.28 1.18 1.07 1.17 1.28 1.25 1.14 1.00 0.96 0.96 0.97 1.08 1.15 1.21 1.29 1.25 1.16 1.17 1.20 1.24 1.22 1.25 1.28 1.30 1.38 1.44 1.48 1.54 1.60 1.70 1.72
1.88 1.79 1.65 1.60 1.61 1.53 1.43 1.42 1.44 1.48 1.54 1.46 1.27 1.20 1.15 1.18 1.27 1.23 1.09 0.93 0.96 0.95 0.96 1.03 1.10 1.18 1.22 1.21 1.22 1.26 1.27 1.30 1.25 1.26 1.32 1.38 1.39 1.48 1.49 1.54 1.62 1.73 1.75
1.60 1.58 1.54 1.56 1.57 1.50 1.44 1.41 1.44 1.50 1.55 1.51 1.36 1.26 1.16 1.13 1.17 1.19 1.08 0.98 0.97 0.95 0.95 1.02 1.10 1.16 1.20 1.24 1.32 1.40 1.40 1.44 1.44 1.39 1.40 1.46 1.42 1.43 1.45 1.47 1.59 1.66 1.66
1.39 1.34 1.28 1.27 1.31 1.33 1.32 1.36 1.47 1.54 1.57 1.47 1.27 1.14 1.05 0.93 1.01 1.03 1.07 1.09 1.08 1.10 1.12 1.13 1.19 1.25 1.28 1.36 1.44 1.51 1.53 1.53 1.54 1.47 1.45 1.51 1.51 1.53 1.54 1.50 1.53 1.64 1.65
1.45 1.28 1.13 1.09 1.13 1.17 1.28 1.37 1.41 1.41 1.35 1.28 1.18 1.09 1.06 0.96 0.96 0.98 1.04 1.06 1.06 1.07 1.05 1.07 1.10 1.18 1.23 1.29 1.35 1.41 1.45 1.45 1.49 1.52 1.50 1.50 1.51 1.49 1.52 1.51 1.49 1.59 1.71
1.27 1.08 0.92 0.88 0.92 1.04 1.19 1.36 1.39 1.31 1.20 1.16 1.14 1.10 1.09 1.08 1.04 1.03 1.06 1.07 1.07 1.04 1.02 1.04 1.04 1.08 1.14 1.16 1.16 1.24 1.29 1.30 1.32 1.40 1.48 1.47 1.49 1.51 1.54 1.58 1.58 1.62 1.70
1.17 1.00 0.86 0.81 0.85 0.98 1.16 1.35 1.34 1.21 1.15 1.18 1.18 1.18 1.16 1.12 1.09 1.08 1.11 1.13 1.11 1.07 1.05 1.09 1.08 1.03 1.03 1.08 1.07 1.03 1.04 1.03 1.05 1.14 1.29 1.41 1.45 1.53 1.54 1.58 1.65 1.64 1.71
1.09 1.00 0.91 0.90 0.94 1.09 1.28 1.37 1.28 1.19 1.13 1.13 1.15 1.23 1.26 1.23 1.19 1.15 1.14 1.19 1.21 1.21 1.16 1.11 1.10 1.03 0.96 0.95 0.96 0.93 0.94 0.87 0.84 0.90 1.03 1.19 1.26 1.38 1.45 1.50 1.61 1.66 1.68
1.05 1.03 0.98 0.98 1.07 1.21 1.30 1.32 1.21 1.15 1.20 1.18 1.15 1.19 1.26 1.30 1.31 1.33 1.32 1.27 1.22 1.17 1.11 1.07 1.04 1.02 0.96 0.89 0.83 0.80 0.76 0.72 0.73 0.82 0.91 1.01 1.12 1.22 1.33 1.40 1.45 1.54 1.57